GEFSCGP_500_meanwind_078.txt.gz
Wind_Speed
8 8 8 9 10 12 13 14 15 17 18 19 18 16 15 14 13 10 7 5 4 5 8 13 16 18 20 22 22 22 19 18 15 13 12 10 9 7 6 5 4 2 2 1
8 8 9 9 10 11 13 14 16 17 17 17 17 15 14 13 13 11 7 5 3 4 6 10 13 15 18 20 19 18 17 16 14 14 12 10 9 8 6 5 4 3 2 2
9 9 10 10 10 11 12 13 15 16 16 16 16 15 14 13 13 12 8 5 4 2 4 8 11 12 15 16 17 17 17 16 15 13 12 11 9 8 7 6 5 4 3 2
10 11 10 10 10 11 11 13 14 15 14 15 14 14 14 12 12 12 9 6 4 2 2 6 9 11 13 16 16 16 17 16 15 13 12 11 9 8 7 6 5 4 4 3
11 11 10 10 11 11 11 13 13 14 13 12 13 12 13 12 12 11 10 7 4 1 2 4 7 10 12 13 14 15 16 15 14 13 11 10 9 8 7 6 6 5 4 3
12 12 11 11 11 12 12 12 13 13 12 11 11 10 10 10 11 10 9 7 5 2 1 4 6 9 10 11 13 14 14 13 12 12 11 10 9 8 7 7 6 5 5 4
12 13 12 11 12 12 12 12 12 11 11 11 12 10 9 8 9 9 8 7 5 3 1 3 5 7 9 10 12 13 13 12 12 11 11 10 9 8 8 7 7 6 6 6
14 13 14 13 12 13 12 12 10 10 10 11 12 10 9 9 8 7 7 6 5 4 2 1 4 5 7 10 11 13 13 12 11 11 11 10 10 9 9 9 8 8 8 9
14 14 16 15 14 14 14 13 12 12 11 10 10 12 11 10 8 7 6 6 4 3 1 1 3 4 6 7 10 12 13 12 11 11 11 11 11 11 11 10 10 10 11 12
16 17 17 16 16 16 14 13 13 11 10 9 10 11 12 11 9 8 6 5 4 4 2 2 3 4 6 7 9 11 11 11 11 11 11 12 12 13 13 13 13 13 14 15
18 17 17 17 16 16 14 13 12 11 11 9 9 11 14 12 11 10 8 7 6 5 4 3 4 6 7 8 9 10 11 11 12 12 13 14 14 15 15 16 16 17 18 18
18 18 18 19 17 15 14 13 12 11 11 10 9 12 13 12 11 11 10 9 8 7 7 6 6 7 8 9 11 12 13 13 14 15 15 16 17 17 18 19 19 20 21 22
19 19 19 19 18 16 14 13 12 12 11 11 9 12 14 12 12 12 12 12 11 10 10 10 10 9 10 11 12 13 15 16 16 17 18 19 19 20 21 22 22 23 24 25
20 20 18 17 17 16 15 14 13 12 11 11 11 12 13 13 12 13 13 13 13 13 12 12 12 12 13 14 14 15 16 17 18 19 20 21 22 23 24 24 25 26 26 27
20 19 18 17 18 17 15 14 13 12 11 11 11 13 13 14 14 14 14 15 15 15 14 14 14 15 16 16 17 17 18 18 20 21 22 24 25 25 26 27 28 28 29 30
20 20 19 18 18 17 16 14 13 13 13 13 13 14 14 14 15 15 16 17 17 17 16 16 17 18 19 19 20 20 21 21 22 23 24 25 26 27 28 29 29 30 31 32
22 19 19 17 18 18 17 15 15 15 15 14 15 16 15 15 15 17 17 18 19 20 20 20 20 21 22 22 23 24 24 24 24 25 26 27 28 29 30 31 31 32 33 34
22 20 19 19 19 19 19 17 17 17 17 17 17 17 17 16 17 18 19 20 21 23 24 24 25 25 25 25 26 27 28 28 28 28 29 30 31 32 33 33 34 35 36 36
23 22 22 21 20 20 21 19 18 18 18 18 18 18 17 18 19 19 20 21 23 24 26 27 28 28 28 28 29 30 31 32 32 33 33 33 34 35 36 36 37 38 39 39
24 23 24 22 21 20 21 20 19 19 19 19 19 19 19 19 20 19 20 21 23 24 26 28 29 29 30 30 31 33 34 34 34 35 36 36 36 37 38 39 40 41 42 42
25 25 24 22 21 21 22 20 19 20 20 20 20 20 20 21 21 21 21 22 24 25 26 28 29 30 31 32 32 33 34 35 35 35 36 37 37 39 40 41 42 43 44 44
25 25 24 23 22 23 22 21 21 21 21 20 20 21 21 22 22 23 23 24 24 25 26 27 29 31 33 33 32 33 34 35 36 36 37 39 39 40 42 43 44 44 45 47
26 25 24 23 23 24 23 23 22 22 21 21 21 22 22 23 24 24 24 25 25 26 27 28 29 31 32 32 32 33 33 34 36 38 39 40 40 42 43 44 45 46 47 49
24 22 23 22 23 24 24 24 23 22 22 22 23 23 24 24 25 25 25 26 26 27 28 29 29 30 31 31 31 33 34 35 36 37 38 39 41 42 44 45 47 48 50 51
21 21 22 23 24 23 22 22 22 23 23 23 24 24 25 25 26 26 26 27 27 28 28 29 29 30 31 32 33 34 35 36 38 39 40 41 42 44 45 47 48 50 52 54
20 21 22 22 22 23 22 22 23 23 24 24 25 25 26 27 27 27 27 28 28 29 30 30 31 32 32 33 35 36 37 38 39 41 42 43 44 46 48 49 51 53 56 58

GEFSCGP_500_meanwind_084.txt.gz
Wind_Speed
11 8 7 6 8 11 12 12 14 15 20 20 20 19 18 19 21 20 19 16 15 12 9 9 10 13 15 17 20 20 20 19 18 16 15 14 12 10 9 8 7 6 4 4
11 8 7 7 11 11 11 13 15 17 19 18 18 18 19 18 20 20 19 17 15 12 10 7 8 9 13 16 17 18 18 18 18 17 15 13 12 10 9 8 7 6 5 4
11 7 7 12 13 11 11 14 16 17 16 15 16 17 19 19 18 18 18 17 15 12 9 6 6 7 10 13 16 16 17 17 17 16 14 13 11 10 9 9 8 7 6 5
12 9 11 14 13 12 13 15 16 15 13 13 13 14 18 22 19 19 18 17 16 13 9 5 4 6 8 11 14 15 15 15 15 14 14 12 11 11 10 10 9 8 6 5
11 9 12 14 13 13 15 15 14 13 14 16 11 10 17 19 21 21 19 17 15 13 9 5 2 4 5 8 11 13 13 13 13 13 13 13 12 11 10 10 10 8 7 6
13 13 14 14 14 14 16 14 12 17 20 17 10 9 16 17 20 20 18 16 14 12 9 5 2 1 4 6 8 10 12 13 13 13 13 12 12 12 11 10 10 8 8 7
12 13 13 15 15 13 15 15 14 16 21 21 14 8 14 16 18 18 17 15 12 10 8 6 5 2 1 4 7 9 10 11 12 13 12 12 12 12 11 11 10 9 8 8
12 12 12 15 15 13 15 15 16 18 17 18 16 13 13 16 17 16 15 13 10 9 8 6 4 3 1 3 5 7 9 10 11 12 12 12 12 11 11 11 10 10 10 10
13 14 15 14 13 15 16 16 16 18 16 15 15 15 15 14 16 16 15 12 10 8 7 5 3 3 1 1 3 5 7 9 10 11 11 11 11 11 11 11 11 11 11 11
15 17 15 16 16 17 17 15 15 15 14 13 14 17 17 14 18 18 16 13 9 7 6 5 3 2 1 1 2 5 7 9 10 10 10 11 11 12 12 12 12 13 13 13
19 20 19 20 18 17 19 16 16 15 14 13 15 18 20 17 17 18 15 13 11 8 7 6 5 4 3 3 4 6 7 9 10 11 11 11 12 12 12 13 13 14 15 15
24 24 24 22 21 22 21 17 17 17 15 14 14 20 20 17 15 15 15 14 12 10 8 7 7 6 5 5 5 6 8 8 10 11 12 12 13 13 14 14 15 16 17 18
26 28 27 23 24 25 22 18 18 17 16 14 14 20 21 19 16 14 15 14 12 11 10 9 9 8 7 8 7 8 8 9 10 11 12 14 14 15 16 17 18 18 19 20
29 31 30 25 25 25 21 16 16 16 15 15 16 19 23 20 16 14 14 14 13 13 13 12 11 10 10 11 11 11 12 12 12 13 14 16 17 18 18 19 20 21 22 23
32 33 32 28 27 25 20 16 16 15 14 16 18 21 24 22 20 17 16 16 15 15 14 14 14 13 12 12 13 14 15 15 15 16 17 18 18 19 20 22 23 23 24 25
34 34 32 29 26 23 21 19 18 17 16 17 20 23 24 23 21 18 17 17 17 16 16 15 16 16 16 16 15 16 17 18 19 19 21 21 22 23 23 24 25 26 27 27
37 35 34 30 26 25 23 21 19 19 20 20 22 24 24 22 20 18 18 19 18 18 17 17 17 18 19 19 20 20 20 21 22 23 24 25 26 27 28 28 29 30 31 31
38 36 34 32 28 28 23 24 23 22 22 22 24 26 24 22 22 22 21 21 20 20 19 19 19 20 21 22 23 24 25 25 26 27 28 28 29 30 30 31 33 34 35 35
38 37 34 31 30 28 26 25 23 22 23 24 25 25 25 24 24 23 22 22 22 21 21 21 22 22 22 24 25 27 28 29 30 31 31 32 32 32 32 33 35 36 37 38
37 34 34 32 30 28 27 27 24 24 25 25 25 24 24 24 23 21 22 22 22 23 23 23 24 23 24 25 26 28 29 30 32 33 34 35 35 35 35 36 37 37 37 38
35 32 32 31 30 31 31 30 28 27 26 24 23 24 24 23 22 22 23 23 23 23 24 24 25 25 26 27 28 29 30 30 31 33 34 35 36 37 37 36 37 37 39 39
34 31 31 31 31 33 33 32 30 26 24 23 23 24 22 21 22 22 23 23 24 25 25 26 26 27 27 28 29 30 31 31 32 33 34 36 36 36 36 36 37 38 38 39
36 35 33 34 35 34 34 30 25 22 23 24 24 24 24 23 23 24 24 25 26 26 27 27 28 28 28 29 30 31 32 32 33 33 34 35 36 36 36 36 36 37 38 39
33 33 30 29 31 31 31 29 27 25 24 24 26 26 26 26 25 25 25 26 26 27 27 27 28 28 29 30 31 31 32 33 34 34 34 35 35 35 36 37 38 39 40 41
23 25 24 26 26 25 27 25 24 26 26 26 26 26 26 26 26 25 25 26 27 28 29 29 30 31 31 31 32 33 33 34 34 35 35 35 36 37 37 38 39 41 42 43
20 22 24 24 21 20 22 22 23 24 25 24 24 25 25 25 25 25 25 27 28 28 29 30 31 32 32 33 34 35 35 35 36 37 37 37 38 39 40 41 42 43 45 47

GEFSCGP_500_meanwind_090.txt.gz
Wind_Speed
14 13 12 11 8 8 7 8 10 14 16 19 20 19 18 20 19 18 18 18 17 15 13 11 7 4 5 8 12 15 15 17 16 16 15 15 14 12 11 11 10 9 8 8
14 12 13 12 9 7 6 8 10 14 17 20 19 19 19 18 17 16 16 16 15 15 14 10 7 2 3 7 10 13 14 16 16 16 15 15 14 13 12 11 11 11 10 9
13 13 15 14 11 8 5 8 12 15 18 20 21 20 19 16 12 13 13 14 14 14 13 12 8 3 2 5 9 10 12 15 16 16 15 15 14 14 12 12 12 12 11 10
14 16 17 15 13 9 7 9 13 16 17 19 19 20 17 15 11 10 12 13 13 13 13 11 7 3 1 5 7 10 12 14 15 16 15 15 15 14 13 13 13 12 11 11
13 17 18 16 13 10 9 11 14 15 16 18 19 20 16 13 8 9 10 12 12 12 12 9 6 3 1 3 6 9 12 14 15 15 15 15 15 14 13 13 13 12 12 11
13 17 17 16 15 13 11 13 15 16 16 17 19 19 15 10 8 9 10 11 11 11 11 8 5 3 1 2 5 8 12 13 14 15 15 14 15 15 14 14 13 13 13 12
15 17 16 16 15 13 13 15 16 16 16 17 18 17 15 11 9 10 10 11 11 10 8 7 6 3 2 3 5 8 10 12 14 14 14 15 15 15 15 14 14 14 14 13
14 15 17 17 14 13 13 15 16 17 17 18 18 16 16 10 9 9 11 11 11 8 6 6 5 4 3 3 4 7 10 11 12 13 14 15 15 15 15 14 15 15 15 14
14 14 17 18 17 15 15 14 14 17 17 18 17 16 15 11 10 9 9 10 10 7 6 5 5 4 3 3 4 6 9 11 12 13 14 14 15 16 15 15 16 16 16 15
15 15 17 18 19 17 17 15 15 17 18 19 19 17 16 14 13 11 9 9 8 7 4 3 3 3 2 2 3 5 7 9 10 12 13 14 15 15 15 15 16 16 16 17
20 20 18 20 21 20 19 18 17 17 20 21 20 19 16 15 14 12 10 8 7 6 4 3 2 1 1 0 2 2 4 6 9 11 11 13 14 15 16 16 16 16 17 18
25 24 23 21 22 22 23 21 19 20 21 21 21 20 17 16 13 12 10 8 7 6 5 4 3 2 2 2 2 4 5 6 8 9 11 13 14 15 16 17 18 18 19 20
31 30 29 26 25 25 25 24 23 22 22 22 22 21 19 17 15 14 11 10 8 7 6 5 4 4 4 4 4 5 6 7 8 10 11 12 13 14 16 18 19 20 20 21
37 35 32 30 28 27 28 25 24 24 24 23 22 21 19 17 15 14 13 10 8 9 7 5 4 5 5 6 5 6 7 8 9 10 11 13 14 15 16 18 19 21 21 22
41 38 36 34 31 30 30 28 27 25 24 23 22 20 18 16 15 14 12 9 9 8 8 6 6 6 6 7 7 8 9 10 11 12 13 14 15 16 18 19 20 22 23 24
45 44 41 38 35 33 32 30 28 26 25 25 23 20 18 16 15 15 14 12 11 10 9 8 8 7 8 9 10 10 11 12 13 14 14 16 17 18 20 21 22 24 26 27
48 47 45 41 38 36 35 32 30 28 27 27 25 22 20 18 17 16 14 13 13 11 10 10 10 10 10 11 11 12 13 15 15 16 17 18 20 21 22 24 25 26 27 29
49 50 48 46 43 43 37 33 32 31 30 29 27 25 23 21 19 17 16 14 12 11 11 11 12 12 13 13 14 15 16 17 18 19 20 22 22 24 26 26 27 29 30 30
46 47 48 48 46 44 40 36 34 33 33 31 28 27 25 24 20 18 17 15 15 14 13 13 13 14 14 15 16 18 19 20 21 21 23 24 25 26 27 28 29 29 31 31
43 45 47 47 47 46 41 38 35 35 35 32 31 29 27 24 21 18 18 17 17 16 15 15 15 16 17 17 18 19 21 22 23 23 24 26 27 27 28 29 30 31 32 33
38 42 44 45 47 46 42 41 38 37 35 31 30 29 26 23 20 18 17 17 17 17 18 18 18 18 19 19 20 21 22 24 25 26 26 27 27 28 30 30 30 31 32 32
32 37 41 44 46 47 43 39 39 38 35 32 32 30 27 24 21 18 17 17 18 18 19 19 19 20 20 21 22 23 24 25 26 28 28 29 30 30 31 33 34 33 34 35
27 31 35 39 41 40 39 39 37 36 34 31 30 28 26 24 21 18 17 18 19 19 19 20 21 21 22 23 24 25 26 27 28 29 30 31 32 33 34 35 36 36 36 36
21 24 28 30 31 32 34 35 34 33 33 30 28 27 23 21 21 19 18 18 19 20 21 22 22 23 23 24 26 27 28 29 30 31 32 33 34 35 35 36 37 37 37 38
16 19 21 23 24 25 27 28 29 29 27 25 23 23 22 20 19 19 19 19 19 20 21 21 22 23 24 25 26 28 29 30 31 32 33 34 35 35 36 37 38 39 39 40
9 11 15 18 18 19 21 23 23 24 22 21 21 19 19 18 17 17 18 19 19 20 21 22 23 24 25 26 27 29 30 31 32 33 34 35 36 37 38 39 39 40 41 43

GEFSCGP_500_meanwind_096.txt.gz
Wind_Speed
19 18 17 18 17 17 17 16 15 15 15 15 15 16 17 17 19 19 19 18 16 15 13 10 8 6 6 10 14 16 18 19 20 20 20 19 19 18 17 14 12 11 10 10
19 17 19 20 18 18 18 17 16 16 16 16 15 15 16 17 18 18 17 17 15 14 13 11 9 5 5 9 13 16 18 19 19 19 20 20 20 18 17 15 13 12 12 11
19 18 22 21 19 19 18 18 17 17 16 15 15 14 16 18 17 16 16 15 14 13 12 12 9 6 5 8 11 16 19 20 20 20 20 20 19 18 16 15 14 13 13 13
19 20 22 21 19 19 18 18 17 16 16 15 15 16 15 16 17 16 16 14 13 12 11 10 9 6 4 7 10 14 18 19 20 20 20 20 20 18 16 15 14 13 14 14
18 20 22 20 19 20 18 18 18 17 16 15 15 16 14 15 16 16 16 14 12 12 11 9 8 5 3 6 9 12 15 17 18 18 19 20 19 18 16 15 15 15 15 14
18 21 21 20 19 20 19 18 18 17 16 15 15 15 13 14 15 15 14 13 12 11 10 8 6 3 2 4 8 11 14 17 18 18 18 19 18 17 16 15 15 15 14 14
18 19 19 18 19 19 19 19 19 18 16 14 14 14 12 13 14 14 13 12 12 12 10 7 5 3 1 4 7 10 13 16 17 17 18 17 17 16 15 15 15 14 14 14
16 16 17 16 16 18 20 20 19 18 16 14 13 12 11 11 13 14 12 11 11 11 8 5 3 2 1 2 5 8 12 14 16 17 18 16 16 15 14 14 15 14 14 14
17 15 16 16 17 18 20 21 20 19 18 16 12 10 8 10 12 13 11 11 11 10 8 5 3 2 1 2 4 6 9 12 14 15 17 16 15 15 15 15 15 14 15 15
20 18 17 18 18 18 19 20 21 20 20 17 13 11 10 10 11 12 11 11 10 9 8 6 4 2 1 1 3 5 7 10 12 13 14 14 14 14 14 15 15 16 16 16
23 21 19 21 20 20 21 21 20 20 20 19 16 11 11 12 12 12 11 11 10 8 7 5 4 2 1 2 3 4 6 7 10 12 13 13 14 14 14 16 16 17 17 17
26 24 22 23 22 23 24 23 22 21 20 20 18 12 12 12 12 11 11 11 10 8 6 6 4 4 3 3 3 4 5 6 8 11 12 13 14 15 16 17 18 18 19 19
30 28 25 24 25 26 27 26 24 22 22 21 20 16 14 13 13 12 11 10 10 8 7 7 6 5 5 5 4 4 5 7 8 9 11 13 14 15 16 18 19 19 20 21
34 33 31 28 27 28 28 28 27 25 24 23 20 18 16 14 13 12 12 11 11 10 10 9 8 7 6 6 6 6 6 8 8 9 10 11 13 14 16 17 18 20 21 22
39 38 37 35 33 32 30 29 29 28 27 26 22 20 16 15 14 13 12 12 11 11 11 11 10 10 9 8 8 8 8 8 8 9 10 12 13 14 16 18 19 20 22 23
43 43 42 41 39 38 35 32 31 29 28 26 23 20 17 16 14 14 13 13 12 12 11 11 11 12 12 12 11 11 11 10 11 12 13 14 15 16 17 18 19 20 22 24
44 45 46 44 43 43 41 35 33 31 29 28 25 21 19 18 17 16 15 15 14 14 13 13 13 14 14 14 13 13 13 13 14 14 15 15 16 17 18 19 21 22 24 26
41 43 45 46 45 46 41 37 36 34 31 30 27 24 22 21 21 20 18 17 18 17 16 15 15 15 15 15 15 15 15 15 15 17 18 18 19 20 20 22 23 25 27 28
37 39 42 44 45 45 42 40 38 36 35 32 29 26 24 24 24 22 20 19 19 18 18 17 16 16 16 16 16 16 16 17 18 18 19 20 21 22 23 25 26 28 29 31
34 36 39 41 43 44 41 39 39 38 36 32 31 30 28 27 25 23 22 22 21 21 20 19 17 17 17 17 17 18 18 19 19 20 21 22 23 24 25 27 28 30 31 33
32 34 35 37 39 40 38 37 38 38 35 32 32 32 30 28 27 26 26 25 24 23 22 21 19 18 18 18 18 19 20 21 22 23 24 24 25 27 27 29 30 31 32 33
29 31 32 34 36 36 34 35 35 35 34 32 32 32 31 30 29 27 27 25 24 24 24 23 22 21 20 20 20 21 22 23 23 24 26 26 27 29 30 30 32 33 34 35
27 29 31 32 33 32 32 32 32 32 33 31 31 31 32 32 31 29 28 28 26 25 27 25 23 23 22 22 23 23 24 25 26 27 28 29 29 30 31 33 34 35 36 36
22 24 26 27 27 28 29 29 29 29 29 29 30 30 31 31 30 29 28 28 26 26 25 25 24 24 24 24 24 25 25 26 27 29 30 30 31 32 33 35 36 37 37 39
18 19 20 21 21 22 23 25 25 26 26 27 28 28 29 29 29 29 29 28 27 27 27 26 26 26 26 26 26 26 27 27 28 30 31 32 33 34 35 37 38 39 40 42
16 16 16 16 16 18 19 20 21 22 22 23 24 25 25 26 25 25 25 25 25 26 26 27 26 26 25 25 26 27 27 28 30 31 32 34 35 36 37 39 40 42 43 45

GEFSCGP_500_meanwind_102.txt.gz
Wind_Speed
20 19 18 18 17 16 15 14 13 14 14 13 13 14 15 16 16 17 17 17 15 15 14 12 11 10 8 7 9 13 17 19 21 22 21 20 20 19 17 16 15 14 12 11
21 20 20 20 18 16 15 14 13 14 14 13 13 13 14 15 16 16 17 16 14 14 13 12 11 9 7 8 9 13 16 19 20 21 21 21 21 19 17 17 15 14 13 12
22 21 21 20 18 16 14 14 14 14 13 13 13 12 14 15 15 15 16 15 13 13 12 11 10 8 7 7 9 12 15 17 19 20 21 21 20 19 17 17 16 15 14 13
22 21 21 20 18 16 15 15 14 13 11 11 12 11 13 14 13 14 15 15 13 12 12 11 10 9 8 8 9 12 15 16 18 20 20 20 19 19 18 17 16 16 14 13
21 21 21 20 19 17 16 16 14 12 11 10 11 10 11 13 13 14 14 14 13 12 11 11 10 9 8 7 9 11 14 16 17 19 20 20 20 19 19 17 17 16 16 15
20 20 20 19 19 18 16 15 14 12 11 11 11 10 9 11 12 13 14 13 12 11 10 10 10 9 7 6 8 10 13 15 17 18 19 20 20 20 19 18 17 17 16 15
18 19 19 19 19 18 16 15 14 12 11 11 12 9 9 10 12 12 13 12 11 11 10 9 9 8 6 5 6 9 11 13 16 18 19 19 19 19 19 18 17 17 15 15
17 18 18 19 19 18 18 17 15 13 12 11 13 10 9 10 11 12 12 12 11 11 10 9 8 8 6 4 5 7 10 13 16 17 17 18 17 17 18 17 17 16 15 15
16 18 18 18 18 19 19 17 16 16 14 12 11 11 10 10 11 11 11 11 11 10 10 8 7 7 6 3 2 4 8 12 14 16 16 16 16 17 17 17 17 16 16 15
18 18 18 18 18 19 19 18 18 16 14 13 11 11 10 10 10 11 11 11 10 10 9 8 6 5 5 3 2 3 6 10 12 13 14 15 16 17 17 17 17 16 16 16
20 19 19 19 19 19 19 19 19 17 17 14 12 11 12 10 10 10 11 11 10 9 9 8 6 5 4 3 1 2 3 6 9 11 13 15 16 17 17 17 17 17 17 16
24 22 21 21 20 20 20 20 19 19 17 16 14 12 12 11 10 11 11 11 10 9 8 7 6 6 5 3 1 1 2 4 8 11 12 14 15 16 17 17 17 16 16 16
28 26 23 21 21 23 23 21 21 21 20 18 15 13 13 11 11 12 12 11 10 9 8 8 7 6 5 4 3 2 3 4 6 8 10 12 14 15 16 16 16 16 17 17
30 29 27 23 21 23 24 23 23 22 21 19 17 15 15 14 13 12 12 11 10 9 9 9 8 7 6 5 5 4 4 4 4 6 8 11 13 14 15 16 16 17 18 18
32 31 30 30 29 28 26 26 26 25 24 22 20 18 16 15 14 14 13 13 12 12 11 10 9 8 8 7 7 6 6 6 6 6 8 10 12 13 14 15 16 17 18 19
35 34 33 32 31 31 30 29 28 28 27 26 24 21 18 17 16 15 15 14 14 13 12 11 11 10 10 10 9 9 9 9 9 9 9 10 11 13 14 15 17 18 19 20
36 36 35 33 33 35 33 29 29 29 28 28 26 23 22 21 19 18 17 16 16 15 14 12 12 12 12 12 12 12 12 12 12 12 12 12 13 14 15 16 17 18 19 20
34 35 36 34 35 37 31 31 30 29 28 28 28 27 25 24 22 21 20 19 17 16 15 14 14 13 13 13 14 14 15 15 15 15 15 16 16 17 17 18 19 20 21 22
33 34 35 35 35 35 32 32 29 29 29 29 29 29 28 26 25 25 24 21 19 18 17 17 16 15 16 16 16 17 17 18 18 18 18 18 19 19 19 20 21 22 23 24
31 32 33 34 34 34 31 31 30 30 30 30 30 30 29 29 29 27 26 24 23 21 21 20 20 18 18 18 19 19 19 19 20 20 20 20 21 20 21 22 23 24 25 26
28 29 31 31 33 33 31 29 29 30 30 29 30 31 31 31 31 30 29 28 26 25 24 23 23 22 21 21 21 21 22 21 21 21 22 23 23 23 23 24 25 26 28 30
27 27 28 29 30 29 29 28 30 30 29 29 30 31 31 31 31 31 31 30 29 28 27 26 25 25 24 24 25 24 24 24 24 24 24 24 24 25 25 27 28 29 30 31
25 26 27 28 29 28 27 27 28 29 28 29 29 30 31 31 32 31 31 31 31 30 30 29 28 28 28 27 27 27 26 27 26 26 26 26 26 27 27 28 30 31 32 33
25 26 27 27 26 26 27 27 28 28 28 28 29 29 30 31 31 31 32 32 32 32 31 31 30 29 28 28 28 29 28 28 28 28 28 28 29 29 30 32 33 33 34 36
24 25 25 25 24 25 25 25 26 27 27 28 29 30 31 31 31 31 31 32 32 32 32 32 31 30 29 28 27 27 28 29 30 30 30 30 30 31 33 34 35 36 37 38
22 23 23 22 21 22 22 23 23 25 26 27 27 29 30 31 31 32 32 32 32 32 32 32 32 30 29 29 28 28 29 30 30 30 31 32 32 33 34 35 37 38 39 40

GEFSCGP_500_meanwind_108.txt.gz
Wind_Speed
19 18 15 13 12 12 12 13 14 13 15 16 16 17 17 17 19 20 21 22 22 21 19 16 15 13 10 8 9 9 9 10 15 18 18 17 17 16 17 16 15 13 12 10
21 18 15 15 13 14 15 15 15 16 16 16 16 17 17 18 17 19 20 22 21 20 18 16 15 13 10 8 8 9 9 10 14 15 17 17 17 16 16 15 15 14 13 11
21 18 16 16 15 16 16 15 15 16 16 15 16 17 17 18 18 18 17 18 20 19 17 16 15 13 10 8 8 8 9 10 13 14 16 16 16 16 15 15 15 15 14 13
21 17 17 18 17 16 16 14 15 16 17 16 16 18 18 19 19 17 16 17 17 17 17 16 15 13 10 9 8 8 9 11 12 14 15 16 16 16 15 15 15 15 15 14
20 18 18 19 18 17 16 15 16 17 17 17 16 16 16 19 19 16 17 20 17 17 17 16 15 13 11 9 8 8 8 11 12 14 15 16 16 16 16 16 16 16 15 15
20 18 19 18 18 18 16 16 16 16 15 15 14 15 15 17 19 18 19 21 19 18 16 15 14 13 11 9 8 7 8 10 12 14 15 16 17 17 16 16 17 17 16 15
20 19 18 18 18 16 16 16 14 13 15 16 16 15 12 16 16 18 20 20 18 17 16 14 13 12 11 10 8 6 7 9 11 13 15 15 17 17 17 17 16 16 16 15
17 16 15 17 17 16 16 16 15 15 18 21 20 15 11 15 14 16 18 18 18 16 15 13 13 13 11 9 7 5 6 7 9 12 14 15 15 16 16 16 16 16 15 15
12 13 13 15 16 16 16 17 15 17 19 22 22 16 9 11 13 14 15 16 17 16 14 13 12 11 10 8 6 5 5 7 9 10 13 14 15 16 16 16 16 16 16 15
19 16 12 15 17 16 16 16 16 19 20 19 18 19 16 10 10 13 14 16 16 14 13 12 11 10 10 8 6 4 4 5 8 10 12 14 15 16 15 16 15 15 16 16
22 23 17 16 16 14 15 16 18 18 18 19 19 21 20 14 11 10 13 15 15 15 13 11 10 9 8 8 7 4 3 4 6 8 11 12 13 15 15 15 16 16 17 16
23 24 23 20 18 16 15 16 17 19 19 19 19 22 18 10 8 10 13 16 16 14 13 11 9 9 8 7 6 4 3 2 4 6 8 10 12 14 16 15 15 16 16 16
27 26 25 22 18 18 18 18 18 19 20 20 17 22 20 13 11 12 14 17 16 15 13 12 10 9 8 7 6 5 3 2 2 4 5 6 9 12 14 15 15 16 17 17
31 31 28 23 22 25 26 24 22 21 21 20 18 22 23 18 15 14 15 15 16 14 13 13 11 10 9 8 6 5 4 4 3 3 5 7 8 10 13 14 15 15 16 17
34 33 32 30 28 26 26 26 26 25 24 23 22 23 24 21 18 18 17 17 17 15 15 14 13 12 10 9 8 7 6 5 5 5 6 7 9 11 12 13 15 16 16 17
35 35 34 33 31 29 27 24 24 24 24 25 25 24 25 23 22 20 21 20 19 18 16 15 14 13 12 11 10 9 8 8 8 7 8 8 9 11 12 14 15 15 17 19
31 34 35 34 31 32 31 25 24 24 23 25 26 28 29 29 27 26 24 21 21 21 19 17 15 14 14 13 13 12 11 11 11 10 10 10 11 12 14 15 16 17 18 19
32 32 32 33 33 34 29 28 28 28 28 30 32 33 34 34 31 30 26 25 25 23 21 20 18 16 16 15 15 15 14 13 13 12 13 13 13 14 15 16 17 18 19 20
34 34 34 32 32 32 29 29 31 31 32 34 36 37 37 37 35 33 32 30 28 26 24 23 20 19 18 17 17 16 15 15 15 15 15 15 16 16 17 18 19 20 21 22
33 34 33 32 31 29 26 27 31 32 34 37 37 37 36 37 37 36 33 32 32 29 28 26 24 22 21 20 19 18 18 18 18 18 18 18 19 19 20 20 21 22 23 24
29 31 31 31 31 29 29 30 31 31 34 36 35 35 36 36 36 35 34 33 33 32 31 29 27 25 24 23 22 21 21 21 20 20 20 21 21 21 22 22 23 23 24 25
28 28 29 29 29 29 33 33 35 36 36 36 35 35 35 36 37 36 35 35 35 34 34 32 30 29 28 26 25 24 24 24 23 23 24 24 24 25 25 25 26 26 27 28
30 29 28 28 29 31 32 34 36 36 36 35 35 35 35 35 35 35 34 34 35 35 35 34 33 32 30 29 28 27 27 27 27 27 27 27 28 28 28 28 29 30 31 31
29 30 30 30 30 31 32 33 33 33 34 34 34 34 34 35 35 34 35 35 35 35 35 34 33 33 32 31 31 31 30 30 29 30 30 30 30 30 30 31 31 32 34 35
30 30 29 30 30 31 31 31 32 32 31 31 32 32 33 33 33 33 33 34 34 33 34 33 33 33 33 32 32 32 32 32 32 32 32 32 31 31 31 32 33 34 35 35
28 27 27 27 28 29 29 29 29 29 29 30 30 31 32 32 32 32 32 33 32 32 32 32 32 33 33 33 33 33 34 34 34 34 33 32 32 32 32 33 34 34 34 35

GEFSCGP_500_meanwind_114.txt.gz
Wind_Speed
17 15 14 15 15 14 15 15 13 11 11 12 14 16 18 20 21 21 20 20 21 18 17 15 14 13 11 10 8 6 6 6 7 8 11 13 15 15 16 18 17 16 15 14
18 15 16 17 17 16 15 15 13 12 13 15 17 17 18 20 21 20 20 18 19 18 17 14 13 12 10 9 9 6 6 6 7 9 11 13 15 15 16 18 18 17 15 15
18 17 19 18 18 17 16 15 14 13 14 17 19 20 20 21 20 17 16 16 17 17 14 13 11 10 9 8 7 4 6 7 8 9 11 13 15 17 17 18 18 17 16 15
20 19 20 19 18 17 16 14 15 14 15 17 19 21 20 21 19 17 15 15 17 16 14 12 10 8 8 7 6 4 6 7 7 9 11 14 16 17 17 18 18 18 17 17
19 20 21 20 18 17 15 14 15 16 18 19 19 20 18 20 19 16 15 14 15 14 12 11 9 8 7 7 6 4 5 7 7 9 11 15 18 18 18 18 18 18 18 17
19 20 20 19 18 16 15 16 16 17 19 19 16 18 18 19 17 15 14 13 12 11 11 10 9 8 7 7 5 4 5 6 7 9 11 15 17 18 18 17 17 18 18 18
20 20 19 18 16 14 16 17 18 18 17 15 15 17 17 18 19 16 13 12 10 9 9 9 9 8 7 7 5 4 4 5 7 10 11 14 16 18 18 18 18 18 18 19
20 18 17 16 15 12 13 16 18 19 17 14 14 16 17 18 17 13 11 9 8 8 8 8 8 7 7 7 5 3 3 5 7 10 11 14 16 18 18 19 19 19 19 19
19 18 18 17 16 14 13 14 16 18 19 18 17 16 15 15 14 13 10 7 7 7 6 7 7 7 7 6 5 3 2 3 5 9 11 14 16 17 18 19 19 19 19 19
18 20 20 19 18 15 14 12 16 18 19 20 19 16 16 16 14 13 11 9 7 6 6 6 6 6 6 6 5 4 3 3 5 7 10 13 15 16 18 19 19 19 19 19
19 21 21 20 18 16 14 14 16 16 18 20 20 18 16 14 13 13 11 9 6 5 6 6 5 5 5 5 5 4 4 3 4 6 8 12 15 16 18 19 19 18 18 18
21 22 22 22 22 20 18 17 17 18 17 18 20 19 18 16 14 12 10 8 6 5 5 5 5 5 6 5 5 4 4 4 5 6 7 10 13 16 17 18 18 18 18 18
26 26 25 24 25 24 22 22 22 21 20 20 20 20 18 17 15 14 11 9 8 7 6 6 5 4 5 5 5 4 4 4 4 5 7 9 10 13 16 17 17 18 18 19
32 31 29 27 28 28 27 27 26 25 24 24 23 22 20 18 16 14 12 10 9 9 9 8 7 5 5 5 5 4 4 4 5 5 6 9 10 11 13 16 17 17 18 19
36 34 32 30 30 32 31 31 31 29 28 28 26 25 23 21 18 16 14 13 11 11 11 10 10 8 7 6 5 4 4 4 5 5 5 7 9 10 12 14 15 16 18 19
41 38 35 33 33 34 34 32 32 32 31 31 30 29 27 25 22 20 18 16 15 15 14 12 12 12 9 7 7 7 6 6 6 6 6 6 7 8 10 12 13 14 16 17
42 40 38 36 35 35 36 34 34 34 34 33 33 31 30 27 26 24 22 20 20 19 18 17 15 14 12 10 9 9 8 8 8 8 8 8 9 9 9 11 13 14 15 16
43 41 39 38 36 38 36 36 37 38 37 35 34 34 32 29 27 26 25 23 24 24 22 21 18 16 15 12 11 10 10 10 10 9 9 9 10 11 11 12 13 15 16 17
43 42 40 38 36 36 35 36 38 39 38 36 36 35 33 31 30 28 28 27 26 26 25 24 22 20 17 15 14 13 12 12 12 12 12 12 13 14 14 14 15 16 17 18
42 42 41 39 37 35 33 35 37 38 38 36 35 34 34 33 32 31 30 30 29 29 26 24 23 21 19 18 17 16 15 14 14 14 14 14 15 15 15 16 17 17 18 18
38 39 39 37 36 34 32 33 35 37 37 35 34 33 33 33 32 32 32 31 30 29 28 26 23 22 21 19 20 19 18 17 17 16 16 17 17 17 17 17 17 18 19 20
35 37 37 35 35 34 31 31 33 34 34 34 33 33 33 33 33 32 32 31 31 30 27 26 25 23 22 21 22 21 20 20 20 19 19 19 19 19 19 19 19 20 21 22
34 35 36 35 34 32 30 30 32 33 34 34 34 33 33 33 32 32 31 30 30 30 29 28 26 25 24 23 23 23 23 22 22 21 21 20 20 20 21 21 21 23 24 26
33 34 33 34 34 33 30 30 30 31 31 31 31 31 31 32 31 31 31 30 29 28 27 26 26 26 26 26 25 24 24 23 23 23 23 23 23 23 23 24 24 25 26 28
34 33 33 32 30 30 29 30 30 29 29 30 31 31 31 32 31 31 30 29 29 27 25 26 26 26 26 26 25 25 25 24 24 24 25 25 25 24 24 25 26 27 28 29
32 31 32 32 30 31 30 29 29 28 28 27 28 28 28 28 28 28 29 28 26 26 25 25 25 25 25 25 24 24 24 25 25 25 26 26 25 25 26 27 28 29 30 30

GEFSCGP_500_meanwind_120.txt.gz
Wind_Speed
21 20 18 19 19 18 17 16 15 16 19 20 20 19 18 17 17 17 16 17 17 17 18 18 16 14 12 11 11 10 10 10 10 10 10 13 15 16 17 18 18 18 17 16
22 21 21 21 20 19 18 17 16 17 20 22 21 20 19 18 18 18 17 17 17 17 18 18 17 15 13 11 10 9 9 10 10 11 12 13 15 16 17 18 19 18 18 17
24 23 23 22 21 20 19 18 18 19 21 22 22 20 18 18 19 18 17 16 16 17 17 17 16 15 14 12 10 7 8 10 11 11 12 13 14 15 15 16 18 19 18 18
26 25 24 23 22 21 19 20 21 21 22 21 22 21 17 18 18 18 16 14 15 15 15 15 15 15 14 12 10 8 8 9 10 11 11 13 15 15 16 17 19 19 19 18
26 26 26 24 22 22 20 22 22 22 22 21 21 21 17 18 17 15 14 12 13 13 14 15 14 13 12 11 10 8 8 8 10 11 12 12 15 16 16 17 19 19 19 19
28 28 26 24 24 23 21 22 23 22 22 21 19 20 16 15 15 14 12 11 12 13 14 14 12 11 10 10 9 8 7 8 10 11 12 13 14 16 17 18 19 20 20 19
27 26 25 24 24 23 22 22 22 22 21 19 17 17 15 13 13 12 12 11 12 13 12 11 10 9 8 9 8 7 7 8 9 10 11 11 14 16 17 19 20 21 21 20
26 25 24 23 22 22 22 22 21 20 19 17 17 16 14 12 11 11 10 10 11 12 10 9 9 7 7 7 7 7 7 8 8 10 11 12 13 15 17 20 20 20 21 20
24 24 24 23 22 23 22 22 21 20 19 18 16 15 13 11 10 11 10 10 10 10 9 8 7 6 6 6 6 6 6 8 9 10 11 12 14 15 17 20 21 21 20 20
23 23 23 23 23 23 22 21 20 19 18 17 15 13 11 9 9 9 8 9 9 9 9 8 6 6 6 5 5 4 5 7 9 10 11 12 13 15 17 18 20 20 21 20
23 23 23 23 23 22 22 22 21 20 19 17 15 13 11 10 9 8 7 8 8 9 9 8 8 8 7 5 4 4 5 5 7 9 10 12 13 14 15 17 19 20 20 20
23 23 24 24 25 25 24 23 22 20 19 17 16 13 11 10 10 9 8 8 8 8 8 7 7 8 7 6 6 5 5 5 6 7 9 10 12 14 15 17 18 18 20 20
24 24 24 25 26 26 26 25 23 22 21 19 17 14 12 11 10 10 10 9 9 8 8 7 7 7 6 7 7 6 5 6 6 7 8 9 11 13 15 17 18 18 20 20
27 26 25 24 25 26 26 26 25 24 23 22 20 18 16 14 13 12 12 12 11 9 8 8 7 6 7 7 7 6 7 7 7 7 7 8 10 12 14 16 17 18 19 20
29 28 26 25 25 27 27 27 26 26 25 24 23 21 19 17 15 14 14 13 12 11 11 10 9 7 8 8 8 7 8 8 7 8 8 8 10 11 13 15 16 16 17 19
32 31 29 28 27 28 30 29 28 28 28 27 25 24 22 20 17 16 16 15 14 13 13 13 12 10 10 11 10 10 10 9 8 8 8 9 10 11 12 14 15 16 16 17
36 35 33 32 31 30 31 31 31 31 30 29 27 25 23 21 20 19 19 19 18 17 16 15 15 14 14 13 13 12 11 10 10 10 10 10 10 10 12 13 14 16 17 17
39 39 38 38 36 36 33 31 31 32 32 32 30 29 27 25 24 23 22 21 21 20 20 18 17 18 18 17 16 16 14 13 12 11 10 10 10 10 10 11 12 15 16 18
41 41 41 41 41 40 38 35 34 34 34 32 32 31 29 27 25 25 24 23 22 22 22 22 20 20 20 20 18 18 17 16 15 14 13 13 12 12 12 13 13 15 16 17
42 43 43 43 43 42 40 38 37 36 35 32 32 31 30 28 27 26 27 25 24 24 24 24 23 23 22 22 21 20 19 18 17 17 16 17 16 15 15 16 16 16 17 19
41 42 43 43 43 42 40 39 37 36 34 32 32 30 30 29 29 28 27 27 25 25 24 24 24 23 23 23 23 21 20 19 19 19 18 18 19 18 18 18 19 19 20 20
38 39 41 42 43 41 39 38 37 36 34 33 32 30 29 29 28 27 26 26 27 26 25 24 23 23 24 24 24 23 22 22 21 20 20 21 21 21 20 20 21 20 20 19
36 36 37 38 40 39 38 37 36 35 33 32 31 30 29 28 28 27 26 26 26 26 26 25 25 25 25 25 25 24 23 23 23 22 22 22 22 22 21 21 21 22 22 22
35 36 35 35 36 37 36 35 34 34 33 32 31 30 28 27 27 26 25 25 25 25 25 25 25 25 24 24 24 24 24 24 23 23 23 23 22 22 22 21 22 23 24 25
34 34 35 34 34 33 33 32 32 32 32 31 29 28 27 26 26 25 24 23 23 24 24 24 24 24 23 24 24 24 24 24 23 23 23 22 22 22 23 24 24 26 27 28
32 33 34 35 33 31 30 30 29 29 29 28 27 26 26 25 25 25 24 24 23 23 23 22 22 21 22 22 22 22 23 24 24 25 25 25 25 24 25 25 26 27 29 30

GEFSCGP_500_meanwind_126.txt.gz
Wind_Speed
19 18 17 17 17 16 15 15 15 16 15 14 13 13 14 14 15 15 15 15 15 15 15 14 13 13 13 13 12 12 11 11 10 11 13 14 14 14 16 18 18 17 16 16
22 21 20 20 19 18 16 16 16 17 16 15 14 14 15 15 15 15 15 15 15 15 14 13 13 12 13 13 13 12 11 11 11 11 13 14 14 14 15 18 19 18 17 17
25 24 23 22 20 19 18 17 17 17 17 16 15 15 15 15 15 15 15 14 15 14 13 13 13 12 12 12 12 11 9 8 9 10 12 14 14 14 14 16 19 18 18 18
27 25 24 23 22 21 20 19 18 18 16 17 16 13 15 15 15 14 14 13 13 13 13 13 14 13 13 12 11 10 8 8 8 10 10 12 13 14 14 16 18 18 18 18
27 27 25 24 23 22 22 21 19 18 17 16 16 15 14 14 14 13 13 13 13 13 13 13 13 13 12 11 10 10 8 8 8 8 9 11 13 15 16 16 17 19 19 19
29 28 26 25 24 23 22 21 20 18 17 16 16 15 13 13 13 12 13 13 13 13 13 13 12 12 11 11 10 10 8 8 8 8 9 11 13 14 16 16 17 18 19 20
28 27 26 25 25 24 22 20 19 17 16 15 17 14 13 13 12 12 12 12 11 12 12 11 10 11 11 10 10 9 8 8 8 9 9 11 12 13 15 16 17 18 18 20
27 27 26 25 24 23 22 20 18 15 13 14 17 13 12 12 11 10 10 9 9 9 10 9 9 9 9 9 9 8 7 7 7 8 9 11 12 12 14 16 17 18 19 19
26 27 26 24 23 23 22 20 19 18 16 14 14 13 12 11 10 9 9 7 7 7 8 8 8 8 8 8 7 6 7 7 7 8 9 10 11 13 14 16 16 18 19 20
26 26 25 24 24 23 22 21 20 18 16 13 13 12 10 10 8 7 7 7 7 6 6 6 6 7 7 7 7 6 6 6 7 8 9 10 11 12 14 15 16 17 19 20
25 24 24 23 22 22 21 21 20 18 17 13 10 11 12 10 8 7 7 7 6 6 7 6 6 6 7 6 6 6 6 5 6 8 9 10 11 12 13 15 16 17 19 21
25 24 23 23 23 23 22 21 19 18 17 14 11 12 13 10 9 9 8 8 7 7 7 7 6 6 5 5 6 5 5 5 6 6 8 11 12 12 13 15 16 17 18 20
27 25 23 22 23 23 22 21 20 19 18 15 12 13 14 11 10 10 10 9 9 9 8 8 7 6 5 5 6 5 5 5 5 6 7 9 11 12 13 14 16 17 19 20
29 27 23 19 19 21 22 21 21 19 17 16 15 15 16 13 12 12 12 11 10 10 10 9 8 7 7 7 6 6 6 6 6 7 8 9 10 11 13 14 15 16 17 18
31 29 26 25 25 23 22 22 22 21 19 17 16 16 16 15 14 13 12 12 12 11 11 10 10 9 8 9 8 8 8 8 8 8 9 10 10 11 12 13 15 15 16 17
33 31 29 27 27 26 25 25 24 23 22 20 19 20 19 18 16 15 14 14 13 13 12 12 12 11 11 11 11 11 10 10 10 10 11 12 12 12 13 14 15 15 16 17
36 33 31 28 28 28 28 26 26 25 24 21 21 21 21 20 18 18 17 16 16 15 15 14 14 14 14 14 14 13 13 13 12 12 12 12 13 13 13 14 15 16 17 18
38 35 33 30 30 29 28 29 27 26 25 24 24 23 22 21 21 20 19 19 18 18 18 17 17 17 17 17 17 17 17 16 15 15 14 14 14 15 15 15 16 18 20 21
38 36 34 32 30 30 32 29 27 27 27 26 25 25 24 23 23 23 22 22 21 21 20 20 21 20 20 20 19 19 19 19 18 17 16 16 17 17 17 17 18 19 20 21
37 36 35 35 32 30 32 31 28 28 29 27 27 26 25 24 25 25 23 23 23 23 23 23 23 22 22 22 21 21 21 20 19 19 18 18 18 19 20 20 19 20 21 22
38 38 37 36 35 33 35 32 29 30 30 28 27 27 26 26 26 26 25 25 24 25 24 24 24 24 24 23 23 23 23 22 21 21 21 20 20 20 21 21 21 21 22 23
39 38 38 37 36 36 37 33 32 32 30 29 28 28 29 28 28 28 27 27 27 27 27 27 26 26 26 26 25 25 24 24 24 23 23 22 22 23 23 23 23 23 24 25
39 39 39 39 39 38 36 35 34 33 33 32 31 30 30 30 29 28 28 27 27 27 28 28 28 28 28 27 27 26 25 25 25 24 23 23 24 24 25 25 26 27 26 26
37 37 37 37 38 37 36 35 34 33 33 33 32 31 30 29 29 29 28 28 27 27 27 28 29 28 28 28 27 27 27 26 26 25 25 25 26 26 26 25 26 26 27 27
36 35 35 35 36 35 35 34 33 32 32 32 31 30 30 30 29 28 28 27 27 27 26 27 27 27 27 27 27 26 26 26 27 26 26 26 27 27 27 27 27 26 27 27
34 34 34 35 34 34 32 32 31 31 30 30 30 30 30 29 29 28 28 27 26 25 24 24 25 25 26 26 26 26 26 27 27 27 27 27 27 27 27 27 27 28 28 28

GEFSCGP_500_meanwind_132.txt.gz
Wind_Speed
16 16 14 13 12 10 10 10 11 11 14 15 14 12 13 15 16 18 19 19 18 16 16 16 16 15 15 15 14 13 13 13 12 11 9 9 9 10 11 11 12 13 13 14
19 16 15 15 13 13 13 13 12 12 15 16 15 13 12 15 17 18 19 19 18 17 15 16 15 14 14 14 14 13 12 12 11 9 8 8 9 10 11 11 11 12 13 14
20 17 17 17 15 15 15 15 14 13 15 15 14 14 14 16 17 17 17 18 19 18 17 15 14 13 13 13 14 13 11 12 11 9 8 9 8 9 10 11 12 13 14 15
22 19 19 19 18 17 17 15 16 15 16 14 13 14 15 17 18 17 18 18 18 18 17 15 14 13 13 13 13 12 11 11 10 9 9 9 9 9 9 10 11 14 15 16
23 21 22 21 19 19 18 16 16 16 16 14 12 13 15 16 18 17 18 18 18 18 16 15 14 13 13 13 13 12 11 11 10 10 9 9 9 9 10 10 12 13 15 15
23 23 23 22 21 20 18 18 17 16 14 14 12 12 13 17 17 18 19 18 17 17 16 14 12 12 12 12 12 11 10 10 10 9 9 9 9 9 10 11 12 13 14 15
24 24 24 23 22 20 19 18 16 14 14 13 10 11 13 18 19 19 20 20 18 16 15 13 12 11 11 11 11 10 9 10 9 9 9 9 9 10 11 12 13 14 15 15
25 24 23 24 22 20 19 18 16 12 11 13 11 12 15 16 18 18 18 18 16 14 13 13 11 10 10 10 10 9 10 9 9 9 9 10 10 10 11 12 13 14 15 16
21 20 20 23 21 20 20 19 16 16 15 14 13 14 16 17 18 17 16 15 14 13 12 11 10 10 9 9 9 9 9 9 8 8 9 9 10 11 12 13 14 14 15 16
23 20 18 21 22 21 20 18 17 19 18 16 15 15 17 18 17 16 15 15 14 13 12 10 9 9 9 8 9 8 8 7 6 7 8 9 10 10 12 12 13 14 14 15
26 24 20 21 23 20 19 20 20 18 18 15 15 18 19 16 16 16 16 16 14 12 12 11 9 9 9 9 9 9 8 7 7 7 8 9 10 10 10 12 13 14 15 15
27 26 23 22 22 20 19 19 20 21 19 18 17 19 19 16 15 17 16 15 15 13 13 12 11 10 9 9 9 8 7 7 7 8 8 9 9 10 10 11 12 14 16 17
28 28 26 23 22 20 19 19 20 20 19 18 16 20 22 20 18 18 16 15 15 15 14 12 12 11 11 10 9 8 7 7 8 9 9 9 10 10 11 12 14 15 16 18
31 31 29 24 20 18 18 18 18 20 19 17 18 21 23 22 22 19 16 15 16 15 14 13 13 13 12 11 10 9 9 8 9 9 9 10 10 11 12 13 14 15 16 17
33 32 31 28 23 18 19 17 18 20 20 19 20 22 24 24 23 20 17 16 17 16 15 15 15 14 13 12 11 11 11 11 10 10 10 10 11 11 12 13 13 14 15 16
36 34 32 31 27 21 21 20 19 20 20 22 21 21 24 24 21 20 18 19 19 17 17 16 16 15 15 14 14 14 13 13 12 12 12 12 12 13 13 13 14 14 15 15
35 35 34 31 28 26 25 22 21 21 22 22 23 24 26 24 24 21 20 21 20 18 18 18 17 17 16 16 16 15 15 15 15 15 15 14 14 14 14 14 14 14 15 15
36 36 35 31 29 30 27 24 23 23 23 24 28 28 28 27 26 24 23 22 21 20 20 19 19 18 18 18 18 18 18 18 17 17 17 16 16 16 16 16 16 16 16 16
36 37 36 34 31 29 27 26 26 26 26 28 30 33 32 30 29 27 25 23 22 22 22 21 21 20 20 21 21 21 21 21 20 20 19 19 18 18 18 18 18 18 18 18
39 40 38 37 33 29 28 28 28 29 31 34 34 33 33 32 30 28 26 25 24 24 24 24 23 23 23 23 23 23 23 23 22 22 21 20 20 20 20 20 20 20 20 19
39 40 39 37 34 31 31 32 32 33 35 36 36 34 33 31 31 29 28 27 26 25 25 25 25 25 25 25 25 25 25 25 25 24 24 23 22 22 22 22 22 22 22 21
37 39 40 39 37 34 37 37 36 36 35 35 34 34 33 31 30 30 30 29 28 27 27 26 26 27 27 27 27 26 26 26 26 26 25 25 24 24 23 23 23 22 22 22
33 34 35 38 42 43 40 40 41 39 36 35 34 34 32 31 32 32 32 31 31 30 29 28 28 28 28 28 28 28 27 27 27 26 26 25 25 25 24 23 23 23 23 24
38 38 38 38 41 44 44 42 40 38 38 36 35 33 33 33 33 33 33 32 32 31 31 30 30 30 30 29 29 29 28 29 28 28 27 26 26 26 25 24 25 25 25 26
38 38 39 39 42 43 44 44 42 39 38 37 36 35 34 35 34 34 34 33 33 32 31 31 30 30 30 30 29 28 28 28 27 27 27 27 26 26 26 25 25 25 26 27
38 38 39 40 42 42 40 39 40 39 38 37 36 36 35 36 35 34 34 33 32 32 31 31 30 30 29 29 28 27 27 27 26 26 26 26 26 25 25 25 25 25 26 26

GEFSCGP_500_meanwind_138.txt.gz
Wind_Speed
15 13 12 12 11 11 11 11 9 7 6 8 9 12 13 14 14 15 16 17 17 17 15 14 14 13 13 12 11 9 8 8 7 6 6 5 5 6 8 9 10 10 12 12
17 14 15 15 14 12 12 12 10 9 9 11 11 12 13 14 15 15 16 18 17 17 15 14 14 14 13 12 11 9 8 8 7 7 6 5 5 6 7 9 11 11 13 13
18 16 18 17 16 14 13 13 11 11 13 14 14 13 13 13 14 15 16 17 16 16 15 15 14 13 12 11 11 9 8 8 7 7 6 5 6 6 7 8 10 11 13 14
20 19 19 17 16 16 14 13 13 14 14 14 16 16 13 13 13 14 15 15 16 16 15 14 13 12 10 10 10 9 8 7 7 7 6 5 6 6 7 8 9 11 12 12
19 19 20 18 16 17 15 15 15 15 15 15 15 16 13 14 14 14 14 15 15 16 15 14 13 11 9 8 8 8 7 7 7 7 7 7 7 7 8 9 9 11 12 13
21 21 21 19 18 18 16 17 17 16 15 14 12 15 15 15 14 14 14 15 15 15 15 13 12 10 9 8 8 7 7 7 7 8 8 8 8 9 9 9 9 11 12 13
22 21 20 20 20 18 18 17 17 17 15 13 13 14 13 13 14 14 14 15 15 14 13 12 12 10 9 9 8 7 7 7 7 7 8 8 8 9 9 10 10 10 12 13
25 22 20 20 18 18 17 17 18 17 16 14 14 14 12 13 14 14 13 14 14 13 12 11 11 10 8 8 8 8 7 8 8 8 8 8 8 9 9 10 10 11 12 13
25 22 21 21 18 18 17 18 18 19 18 18 15 14 12 14 16 15 14 14 13 12 11 10 9 8 7 8 8 7 7 7 8 8 8 8 8 9 9 9 10 11 12 13
26 24 23 23 22 20 18 17 19 21 20 20 17 15 14 14 14 13 14 13 12 13 11 9 8 7 7 7 7 7 6 6 7 7 6 6 7 8 9 9 10 11 13 14
26 26 24 25 24 20 18 17 18 20 22 21 20 18 16 16 16 15 14 12 11 10 9 8 8 8 7 7 8 8 8 7 7 6 6 6 6 7 8 9 10 11 13 14
24 26 26 25 23 22 21 19 19 20 20 21 21 19 18 17 16 15 14 13 10 9 9 9 8 8 7 8 8 8 8 7 6 5 5 6 6 7 8 9 10 11 12 13
24 28 28 27 27 24 22 20 19 20 21 22 22 21 20 19 17 16 15 13 10 10 10 10 9 8 7 8 8 8 8 7 6 6 6 7 7 8 9 10 11 11 12 13
26 29 29 28 26 26 24 21 18 19 21 22 23 22 22 20 18 17 16 14 14 12 11 11 10 9 8 8 8 8 8 8 7 8 7 8 8 8 9 10 11 12 13 13
31 31 30 29 29 30 27 24 21 21 21 21 21 23 22 21 20 19 17 16 15 14 13 13 12 11 9 9 9 9 8 8 8 8 8 9 9 9 9 10 10 11 11 12
36 34 32 31 31 33 31 27 25 23 22 21 21 22 22 22 21 20 19 17 15 15 14 14 13 11 11 11 10 10 10 10 10 10 10 10 10 10 10 10 10 11 12 12
41 39 36 34 33 35 35 30 28 26 25 24 24 23 22 23 23 22 20 19 18 17 16 15 14 13 13 13 13 12 11 12 12 12 12 12 12 12 12 12 12 12 13 13
44 42 40 37 36 38 35 32 31 29 28 27 26 25 25 25 24 24 23 21 18 18 17 16 16 15 14 14 15 14 14 14 14 14 14 14 15 15 14 14 14 14 14 15
47 45 42 40 39 39 36 34 34 33 31 29 28 27 27 27 26 25 24 22 21 20 19 19 18 17 16 17 17 16 16 16 17 17 17 17 17 16 16 16 16 16 16 16
49 47 45 43 41 39 36 34 35 35 35 32 31 30 29 29 28 27 26 25 24 24 22 21 20 19 19 19 19 19 19 19 19 19 19 19 18 18 17 17 17 17 17 17
49 48 46 45 43 40 37 36 37 38 36 34 33 32 31 31 30 29 28 27 27 26 24 23 22 22 21 21 21 21 21 21 21 21 21 20 20 19 19 19 19 19 19 19
50 49 47 45 44 42 37 37 39 39 37 36 34 34 34 32 31 30 28 28 27 26 26 25 24 24 23 23 23 23 23 23 23 23 23 22 22 21 21 21 21 21 21 21
48 48 47 46 44 40 39 39 40 40 38 37 36 36 36 35 33 32 30 28 29 29 29 28 27 26 25 25 25 24 24 25 24 24 24 24 23 23 23 23 22 22 22 22
47 48 48 47 45 42 39 39 40 40 40 38 37 38 37 36 34 34 33 31 30 31 30 30 29 28 27 27 26 26 26 26 26 25 25 25 24 24 23 23 23 23 23 23
46 46 47 47 45 43 41 40 39 39 40 40 39 38 38 38 36 35 34 33 32 31 31 31 30 29 28 28 28 27 27 27 26 25 25 24 24 24 23 23 23 23 23 23
42 43 44 45 44 42 41 40 40 40 40 40 40 39 38 37 37 36 36 34 32 32 31 31 30 30 29 29 28 28 28 28 27 26 25 24 24 24 24 23 23 23 23 23

GEFSCGP_500_meanwind_144.txt.gz
Wind_Speed
16 15 14 15 15 14 13 12 12 13 14 13 12 11 10 10 10 11 11 12 13 13 14 13 12 11 11 10 9 8 8 7 5 5 6 6 5 7 7 7 7 8 9 9
18 17 18 18 16 15 14 13 14 15 15 14 14 13 12 12 12 12 12 13 14 14 14 14 13 12 11 10 9 9 8 7 6 6 7 6 6 6 7 7 8 8 8 9
20 20 20 19 17 16 15 15 16 17 17 16 15 14 13 13 13 13 13 13 13 14 14 14 13 13 11 11 11 10 8 8 7 6 6 6 6 6 7 7 8 8 7 8
23 22 21 20 19 17 17 18 18 18 18 18 17 16 13 13 13 13 13 13 13 13 14 14 14 14 12 11 10 8 8 8 8 7 7 7 6 7 7 7 8 8 9 9
24 24 23 21 20 19 19 20 19 19 18 19 19 18 14 14 13 13 12 13 12 12 13 13 14 13 11 10 8 7 7 7 7 7 7 8 8 8 8 8 8 9 10 11
26 26 24 22 22 21 20 21 20 20 19 19 19 19 15 14 13 13 13 12 12 12 13 13 12 12 10 8 7 7 7 7 6 7 7 8 8 9 10 9 9 9 10 11
27 26 25 24 23 22 22 21 21 20 20 19 18 18 16 14 13 13 12 12 11 11 13 13 11 11 9 8 7 7 7 7 7 7 8 8 8 9 10 10 10 10 11 12
28 27 26 25 24 23 23 22 22 21 20 19 19 18 15 13 13 12 11 10 10 11 12 12 12 10 9 7 7 7 6 7 7 7 7 8 9 9 10 10 11 11 12 13
29 28 27 26 25 25 24 23 22 22 21 20 19 17 14 13 12 12 11 10 11 12 12 12 12 11 9 8 8 7 5 5 6 7 7 7 7 8 9 10 11 11 12 13
32 30 29 28 28 27 26 24 24 23 22 21 19 17 15 13 13 12 10 11 12 12 12 12 12 10 8 7 7 6 6 6 6 6 7 7 7 7 8 9 10 12 13 13
33 32 31 30 29 28 27 25 25 24 23 21 19 16 15 14 13 12 12 11 12 12 12 12 11 10 8 7 7 7 7 7 6 6 7 7 7 7 7 8 10 11 12 13
33 33 32 31 30 30 28 26 25 24 22 21 20 16 15 14 13 13 12 11 11 12 12 11 11 10 8 7 7 7 6 6 6 6 6 6 6 7 8 8 9 10 11 13
34 34 32 32 31 30 29 27 26 24 23 22 20 17 15 15 14 14 13 11 11 11 10 11 11 10 8 7 7 7 6 6 6 7 7 6 7 8 9 9 10 10 10 12
34 33 31 29 28 28 28 27 26 25 24 22 19 17 15 15 14 14 12 11 12 11 11 11 10 9 9 9 7 7 7 7 7 7 7 6 7 7 8 10 10 11 12 13
33 32 30 29 28 29 29 28 27 26 24 22 19 17 15 15 14 14 14 14 13 11 12 12 10 9 9 9 8 7 7 8 8 8 8 8 7 8 9 10 10 11 12 13
34 32 30 29 29 29 30 29 28 27 26 24 21 18 17 16 16 15 14 14 13 12 12 12 11 10 9 9 9 9 9 9 9 9 9 9 9 10 11 11 11 12 12 13
36 34 32 30 30 31 31 30 30 29 27 25 23 20 18 17 17 16 16 14 13 13 13 13 12 11 10 10 10 10 10 10 10 11 11 11 12 12 12 13 13 13 14 14
38 36 34 32 32 33 30 30 30 30 29 28 25 22 21 20 19 18 17 16 15 15 15 15 13 12 12 12 12 12 11 11 12 12 13 13 14 14 15 15 15 16 16 16
42 40 38 36 35 34 32 30 30 30 30 29 27 25 24 22 22 21 19 18 18 17 17 16 15 14 14 14 14 14 14 14 14 14 15 15 15 15 16 17 17 18 18 18
45 44 43 41 39 37 34 32 31 30 31 29 28 27 26 24 23 21 20 20 20 19 19 18 18 17 17 17 17 17 17 16 16 16 16 17 17 17 18 19 19 19 19 20
48 47 46 45 44 41 37 35 33 33 31 29 29 28 27 26 24 22 22 21 22 21 20 19 19 19 19 19 20 19 18 18 18 18 19 19 19 19 20 20 21 21 21 21
49 49 48 47 46 44 40 38 36 34 32 31 30 29 28 27 26 25 24 23 23 22 22 22 22 22 22 22 22 21 20 20 20 20 21 21 22 22 22 22 22 22 23 22
49 50 50 50 48 45 42 40 38 36 34 32 31 29 29 28 27 27 26 26 26 25 26 25 25 25 25 24 23 22 22 22 22 22 23 23 23 23 23 23 23 23 23 23
48 49 50 50 50 48 45 42 40 37 35 33 31 30 30 29 30 30 30 29 28 27 27 28 28 27 26 26 25 24 23 23 23 24 24 24 24 24 24 24 24 24 24 23
47 47 49 49 49 49 47 44 42 40 37 35 33 32 31 31 31 31 32 32 31 30 30 30 29 27 26 26 25 25 25 25 25 25 26 26 25 25 25 25 25 25 24 25
46 46 47 47 47 47 46 44 42 40 38 36 34 32 32 32 33 32 32 33 32 31 31 29 28 28 28 27 28 27 27 26 27 27 27 26 26 26 26 27 26 26 26 26

GEFSCGP_500_meanwind_150.txt.gz
Wind_Speed
13 12 11 11 10 9 8 8 9 8 7 6 6 7 8 9 9 10 11 11 12 13 13 12 11 12 12 12 11 10 9 8 7 7 7 7 8 7 7 7 7 7 7 7
16 15 14 13 11 10 10 10 11 10 8 8 8 8 9 10 10 10 11 12 13 13 13 12 12 12 12 12 11 11 9 9 9 8 8 7 7 7 8 8 7 8 8 8
19 18 16 14 13 12 12 12 12 12 10 9 9 10 11 11 11 11 11 12 13 13 14 14 13 13 11 11 11 11 11 10 9 8 7 8 7 7 8 7 7 7 8 8
21 20 18 17 15 14 14 14 13 12 11 11 10 9 13 12 12 12 12 12 13 13 13 13 13 13 12 11 11 12 11 10 9 7 7 7 7 7 7 7 7 7 8 9
23 21 20 19 17 17 16 15 14 13 13 13 13 11 12 13 12 12 12 12 13 13 13 14 13 13 13 13 11 11 11 9 8 7 7 7 7 7 7 7 8 8 8 9
25 23 22 20 19 18 17 15 15 14 14 14 14 13 12 13 12 12 12 12 12 13 13 13 13 13 12 12 11 10 10 8 7 7 7 7 7 8 8 9 9 9 10 10
26 24 23 22 21 19 18 16 15 14 14 15 14 13 14 13 12 12 12 11 12 12 12 12 12 12 12 11 10 9 9 8 8 8 8 8 7 8 8 9 10 11 11 11
27 26 25 24 22 21 19 18 16 14 13 14 15 14 14 13 12 12 11 11 11 12 11 11 11 12 13 12 10 9 9 9 8 8 8 8 8 8 8 8 9 10 11 11
29 29 27 26 24 23 22 20 19 18 17 15 16 15 14 13 13 12 11 11 11 11 11 11 11 12 13 12 10 10 10 9 9 9 8 8 8 9 9 9 9 9 10 11
31 30 29 27 26 25 23 22 21 18 17 15 16 15 13 13 13 12 12 11 11 12 12 12 11 12 11 10 9 9 9 8 8 8 8 8 9 9 9 9 9 9 11 12
32 31 30 28 27 26 25 24 22 20 19 15 13 14 14 13 13 12 11 11 11 12 12 11 11 11 10 8 8 8 8 8 8 8 8 8 8 9 9 9 10 10 11 11
31 31 31 30 29 27 26 24 23 21 20 17 15 15 16 14 14 13 13 13 12 11 11 11 11 10 9 8 8 9 8 7 7 7 8 8 8 8 9 10 10 10 11 11
31 31 30 29 29 27 26 25 24 22 21 19 16 15 16 14 14 14 14 13 12 11 11 11 10 10 9 9 9 9 8 8 7 7 7 8 9 9 9 9 10 10 11 12
31 30 29 25 25 26 26 25 24 23 22 20 17 16 16 14 14 14 14 13 12 11 11 11 10 10 10 10 10 9 8 7 7 7 8 9 9 10 10 10 10 11 11 12
31 30 29 28 28 27 26 26 26 24 22 20 18 17 15 15 14 14 14 13 13 12 12 12 12 11 11 11 10 10 9 8 8 8 9 10 10 10 10 10 10 11 12 12
32 30 29 28 28 28 28 27 26 25 23 21 19 17 17 16 15 15 14 14 13 13 13 13 12 12 11 11 11 10 10 9 10 10 10 10 10 10 11 11 12 12 13 13
33 31 29 28 28 29 30 28 27 26 24 21 19 18 18 17 17 16 15 15 15 14 13 13 12 12 11 11 11 11 11 11 11 11 11 11 11 11 12 12 12 13 14 14
34 33 31 29 29 29 28 28 27 26 24 23 22 20 19 18 18 17 17 16 16 15 15 14 13 12 13 13 13 13 12 12 12 13 13 13 13 13 13 13 14 15 15 16
36 35 34 32 30 29 31 29 27 26 25 24 23 22 21 19 19 19 18 17 18 18 17 16 15 15 15 14 13 13 13 14 14 14 14 14 15 15 15 16 16 16 17 18
38 37 36 35 32 30 31 30 27 26 27 26 25 23 22 21 20 20 20 20 20 19 19 18 17 17 16 16 15 14 14 15 15 16 16 16 16 16 17 17 18 18 19 19
40 39 38 37 35 33 34 31 29 28 28 27 26 24 23 23 22 22 21 21 21 21 20 20 19 19 19 18 17 17 17 17 17 18 18 18 18 18 18 19 19 20 20 20
41 40 40 39 37 36 36 33 32 31 29 29 28 26 26 25 24 23 23 22 22 22 22 22 22 21 21 20 20 19 19 19 19 19 20 20 20 20 21 21 22 22 22 22
42 43 43 42 41 40 38 36 34 33 31 30 29 28 27 26 26 25 24 25 24 23 23 24 24 24 24 23 22 22 22 22 22 21 21 21 22 22 23 23 24 24 24 25
43 43 43 43 43 42 40 38 37 35 33 31 30 29 28 28 27 27 27 27 27 26 26 26 26 26 26 26 25 25 24 24 24 23 23 23 24 24 25 25 25 25 25 25
42 42 43 43 43 42 42 41 39 37 36 34 32 31 31 30 29 29 29 29 29 28 28 28 28 28 28 28 28 28 28 27 26 26 25 25 25 26 26 26 26 26 26 26
41 41 42 43 43 43 42 41 40 39 38 36 35 34 32 31 31 30 30 30 29 30 30 30 30 30 30 30 30 29 30 30 29 28 28 27 27 27 28 28 28 28 28 27

GEFSCGP_500_meanwind_156.txt.gz
Wind_Speed
10 9 7 4 6 8 9 8 6 7 10 7 6 8 10 11 12 13 13 14 13 14 15 15 15 15 14 14 14 13 13 12 10 9 9 8 7 7 7 7 7 7 7 7
12 10 9 8 11 11 10 9 7 7 11 8 6 8 10 11 12 14 14 14 14 15 15 15 15 15 14 14 14 14 14 13 11 10 9 8 8 8 8 7 6 7 7 7
14 11 12 12 12 11 10 8 8 9 11 7 7 9 12 14 13 14 14 14 14 15 15 15 14 14 14 14 14 15 13 13 12 10 8 8 8 8 8 7 7 7 6 7
16 15 15 14 13 11 9 9 10 10 9 6 7 9 14 16 14 13 14 14 15 16 15 15 14 14 14 14 14 14 13 11 10 10 8 8 8 8 7 7 6 6 7 7
18 17 17 16 14 13 12 12 11 10 9 7 6 9 12 15 14 12 13 13 15 16 16 15 14 14 14 14 14 13 13 11 10 9 8 8 8 7 7 6 6 6 7 7
20 19 19 17 16 15 14 13 10 8 8 9 8 9 11 14 14 14 14 14 15 16 15 14 14 15 15 14 14 14 13 12 10 9 9 8 8 7 7 7 6 6 7 7
23 21 21 19 17 16 15 13 10 9 10 10 9 10 13 15 16 16 16 16 15 14 14 13 14 15 14 14 13 13 12 12 11 10 9 8 8 7 7 7 7 7 7 8
24 23 22 21 19 17 16 14 11 9 9 11 9 9 13 17 17 16 16 14 14 14 14 14 14 14 13 13 13 13 13 12 12 11 10 10 9 8 8 7 8 8 8 8
20 19 20 22 21 19 17 16 13 13 13 14 13 11 15 18 16 15 14 14 14 14 14 13 13 13 13 13 13 13 13 13 13 11 10 10 10 9 8 8 8 9 9 10
24 20 17 22 23 22 20 17 16 17 16 15 13 14 16 17 15 15 15 15 14 14 13 13 13 13 12 13 13 13 12 12 12 11 10 10 9 8 8 8 9 9 10 11
28 26 21 22 24 21 21 21 19 18 17 15 14 16 16 18 15 15 16 15 14 15 14 12 12 13 13 13 13 13 12 12 12 11 10 10 9 9 9 9 10 10 11 12
30 29 26 24 24 22 21 21 21 21 19 18 16 17 17 16 17 16 17 16 14 15 14 14 13 13 13 14 13 13 12 12 12 11 10 10 9 9 9 10 11 11 11 12
31 31 29 25 23 24 22 22 21 21 19 18 15 17 20 19 18 19 19 17 14 15 15 14 13 14 14 14 14 14 13 12 12 12 11 11 10 10 10 10 11 11 12 12
32 32 31 26 22 21 22 21 22 22 21 19 18 18 20 19 19 20 19 17 17 16 15 15 14 15 15 15 15 14 13 13 13 12 11 11 11 11 11 12 12 12 13 14
33 33 32 30 25 19 19 20 21 23 23 22 19 18 19 19 21 21 19 18 18 17 16 15 15 15 16 16 15 14 14 14 14 13 13 12 12 13 13 13 13 13 14 14
35 34 33 32 30 24 21 19 19 20 22 23 22 20 21 21 23 22 21 20 18 18 17 16 16 15 16 16 16 15 14 14 14 14 14 13 13 14 14 13 13 13 14 14
36 34 33 31 29 29 28 23 21 21 21 21 21 23 23 24 25 23 23 21 20 19 18 17 16 16 16 16 16 16 16 16 15 15 15 15 15 15 14 14 14 14 15 15
35 35 33 31 28 28 27 24 23 22 21 22 24 24 24 26 26 24 23 23 21 20 18 17 17 17 17 17 17 17 16 16 16 17 17 16 16 16 16 16 16 16 16 17
34 34 33 31 28 26 23 24 24 24 25 25 25 25 26 26 26 26 25 24 22 21 20 19 18 18 18 18 17 17 17 17 18 18 18 18 18 18 17 17 17 18 18 19
35 35 34 33 30 26 26 25 25 27 29 29 29 28 27 27 27 27 26 24 22 21 21 20 20 19 19 19 19 19 18 18 19 19 19 19 19 19 19 19 19 19 20 20
36 36 36 35 33 30 28 28 28 29 32 31 30 30 30 30 30 28 27 25 24 23 23 22 22 21 21 21 21 20 20 20 20 20 20 20 20 20 21 21 21 22 22 22
34 36 36 36 36 34 34 33 31 32 30 29 30 30 30 30 29 29 28 27 25 24 24 24 24 23 23 23 23 22 22 22 22 22 22 23 23 23 23 24 24 24 24 24
34 34 35 36 38 39 37 36 35 35 34 33 33 32 32 31 30 30 29 28 27 27 27 26 25 25 25 25 24 24 24 24 25 25 25 25 25 25 25 26 26 26 26 26
35 36 37 36 38 40 40 39 39 38 37 36 35 34 34 33 32 31 31 30 30 29 29 29 28 28 28 27 27 27 27 27 28 27 27 27 27 27 28 28 27 28 28 28
40 39 39 39 39 40 42 41 40 38 38 37 37 36 36 34 34 33 33 32 32 31 31 30 30 30 30 30 30 29 29 30 30 30 29 29 29 30 30 30 29 30 30 30
40 40 41 42 42 42 42 42 41 39 39 38 38 38 37 36 35 35 34 33 33 33 32 32 31 32 31 31 31 31 31 31 31 31 31 31 31 31 32 32 32 32 32 32

GEFSCGP_500_meanwind_162.txt.gz
Wind_Speed
15 14 13 13 11 9 8 7 5 3 3 6 7 8 9 12 14 15 16 16 15 15 14 14 14 13 13 12 12 12 12 11 10 8 5 4 3 3 3 3 3 3 2 2
16 15 15 14 13 10 9 9 7 5 5 6 7 8 9 10 13 15 16 16 14 15 14 13 13 12 12 12 12 11 11 10 9 8 6 4 4 3 3 3 3 3 3 3
17 16 16 15 13 11 11 12 11 9 8 8 9 9 10 10 12 14 16 16 16 15 15 14 13 12 11 11 11 11 11 10 9 8 7 5 4 3 3 4 4 3 4 4
18 18 17 15 13 12 12 12 13 12 11 10 11 11 10 10 11 12 14 15 16 16 15 13 12 11 11 10 11 11 10 10 9 8 6 5 4 3 4 4 4 4 4 5
20 19 19 17 14 13 13 13 13 13 12 11 12 12 11 11 11 12 13 15 16 16 14 13 12 11 11 10 10 11 10 10 9 7 6 5 4 4 4 4 4 4 5 5
21 21 20 17 15 14 14 14 13 13 12 11 11 13 11 12 11 11 13 15 16 15 15 14 13 12 11 11 10 10 10 9 8 7 7 6 5 5 5 4 4 5 5 5
23 22 21 19 17 15 15 15 14 13 12 10 10 11 11 12 12 12 13 15 16 15 14 13 12 12 11 11 10 10 10 9 9 8 7 6 6 5 6 6 5 5 5 5
25 24 22 20 18 16 16 16 15 14 12 10 10 11 10 11 12 12 12 13 13 13 13 12 11 11 11 10 10 10 10 9 9 9 8 7 6 5 5 6 5 5 5 5
27 25 23 22 20 18 17 16 16 16 15 13 12 12 11 11 11 11 12 13 13 13 12 11 10 10 10 10 10 10 10 9 9 8 7 6 6 6 5 5 5 5 5 6
27 26 25 24 23 21 18 17 18 18 17 16 15 14 13 13 12 13 14 13 12 12 13 13 11 8 9 9 9 10 9 8 8 7 7 7 7 6 6 6 6 6 6 7
27 27 25 26 24 20 19 19 20 19 19 18 17 15 15 14 14 15 15 14 14 13 14 15 13 9 8 9 9 9 8 8 7 7 7 7 7 6 6 6 6 7 7 7
28 28 28 27 25 23 20 20 20 21 20 20 20 18 17 17 16 16 16 16 17 14 14 15 13 11 11 9 9 10 8 8 8 8 8 8 7 7 7 7 7 7 8 9
30 31 30 29 28 25 23 21 21 22 22 23 23 21 20 19 19 18 18 17 15 13 15 16 13 12 11 10 10 10 9 8 8 8 9 9 8 8 8 8 8 8 9 9
32 33 32 31 29 28 25 23 21 22 23 23 23 22 22 21 21 20 19 17 15 15 15 14 13 12 12 11 10 11 10 9 9 9 10 10 9 9 9 9 9 9 10 10
33 33 33 32 31 31 29 26 24 22 22 23 23 23 23 22 22 22 21 19 17 16 16 15 14 13 13 12 11 12 12 11 11 11 12 11 10 10 10 10 11 11 11 11
34 34 33 33 33 34 33 30 26 24 23 24 24 24 25 25 25 23 23 21 19 17 17 17 16 14 15 13 13 13 13 12 12 12 12 11 10 10 11 11 11 12 12 12
37 35 34 34 33 34 35 32 29 27 25 24 24 23 25 26 26 26 25 23 22 20 18 17 17 16 16 15 14 14 14 13 13 13 13 11 11 11 12 11 12 12 12 13
38 37 36 35 34 36 33 32 31 29 27 25 23 24 25 26 27 27 26 24 23 21 19 18 18 17 16 15 14 14 15 14 14 14 13 13 12 13 13 13 13 14 14 14
40 38 37 36 36 35 34 34 34 32 30 28 27 27 27 28 28 28 27 24 24 23 22 20 19 18 17 16 16 16 15 15 15 15 15 14 14 14 14 15 15 15 15 15
42 40 38 37 36 36 35 34 35 35 34 32 30 29 30 29 29 29 28 27 25 24 23 21 20 19 19 18 18 18 18 17 17 17 17 16 16 16 16 17 17 17 16 16
42 41 39 38 37 36 36 37 37 37 37 35 32 31 31 31 31 30 29 28 27 26 24 22 21 21 21 20 20 20 20 19 18 18 18 18 18 18 18 18 18 18 18 19
43 42 41 40 39 38 36 37 38 39 37 35 34 33 34 33 33 31 30 29 28 26 25 24 24 23 22 21 21 21 21 21 20 20 20 20 20 20 20 20 20 20 20 21
43 43 42 41 40 38 37 38 39 40 39 37 35 34 34 34 34 32 30 29 28 27 26 25 25 25 24 24 23 23 23 23 23 23 22 22 22 21 21 21 22 22 22 22
43 43 42 42 40 39 38 39 39 41 41 40 39 37 37 36 35 34 32 30 29 29 29 28 27 27 27 26 26 26 25 25 25 24 24 24 23 23 23 23 24 25 25 24
41 41 41 41 40 39 38 39 40 40 41 41 41 39 38 36 36 36 35 34 33 33 32 31 30 29 28 28 28 28 28 27 26 25 25 26 26 25 25 25 26 26 27 27
39 40 39 39 38 38 39 38 38 39 40 40 40 40 39 37 37 38 37 36 36 35 34 32 31 31 30 30 30 30 29 29 28 28 28 28 27 27 27 27 28 29 30 30

GEFSCGP_500_meanwind_168.txt.gz
Wind_Speed
17 17 16 14 13 12 11 9 8 6 5 3 3 5 6 8 9 10 12 13 15 15 15 15 15 14 13 12 11 11 11 11 8 6 4 3 3 2 2 2 2 2 3 2
19 18 17 17 15 14 13 11 10 9 8 7 6 5 6 8 9 10 11 12 13 14 14 15 14 14 12 11 11 11 11 10 8 6 5 3 2 3 3 3 3 3 4 4
20 20 18 18 17 16 15 13 12 11 10 10 9 7 8 9 10 10 11 12 13 13 13 13 13 13 12 10 10 11 10 9 8 6 5 4 4 4 4 4 4 4 4 5
21 20 20 19 18 17 17 15 14 13 13 12 12 10 9 10 10 10 11 12 12 12 13 13 12 12 12 10 10 10 10 9 8 7 6 5 4 4 4 4 4 4 4 5
23 22 21 20 19 18 18 17 16 14 14 14 13 13 11 11 10 10 11 11 11 13 13 13 13 12 12 10 10 10 10 9 8 7 6 5 4 4 5 5 5 5 5 5
25 24 22 21 20 19 19 18 17 16 15 15 14 14 12 12 12 11 11 10 12 13 14 14 13 12 12 11 11 10 10 9 8 7 7 6 5 5 5 5 5 5 5 5
27 26 24 23 22 20 20 19 18 17 17 17 15 14 12 11 11 10 10 10 11 13 14 14 13 13 12 13 12 11 11 9 7 7 7 7 6 6 6 5 5 5 5 5
28 27 26 25 23 22 21 19 19 18 18 17 17 15 13 11 11 10 9 11 12 13 14 14 14 13 13 14 13 12 11 10 8 8 8 8 7 7 6 5 5 5 5 5
29 28 27 27 25 24 23 22 20 20 19 19 18 16 14 12 12 11 11 12 12 12 14 16 15 13 14 14 14 11 10 9 9 9 9 8 8 7 6 5 6 6 6 7
31 30 29 29 28 27 25 24 22 21 21 20 19 17 15 13 13 13 12 12 12 13 14 15 15 15 15 15 15 13 11 10 10 9 9 8 8 8 7 7 7 7 7 8
33 32 31 31 30 29 27 26 24 23 21 21 20 18 16 14 14 13 13 13 13 14 14 15 14 14 15 15 14 12 11 10 9 8 8 8 8 8 8 8 9 9 9 9
33 33 32 32 31 31 29 27 25 24 23 22 22 19 16 15 15 14 14 14 14 14 14 15 15 14 14 14 13 12 11 10 9 8 8 8 8 9 9 10 10 10 10 10
34 34 33 33 33 31 30 28 27 26 25 24 24 21 18 17 16 16 15 15 15 15 15 16 16 15 15 13 12 12 11 11 10 9 9 9 9 10 10 10 11 11 11 11
35 35 33 32 31 30 30 29 28 27 26 26 25 22 20 19 18 18 17 17 16 15 16 17 17 16 16 13 12 13 11 11 10 10 9 9 10 11 11 12 11 11 12 13
36 35 34 33 31 31 31 30 29 29 27 26 24 23 21 20 19 19 18 17 16 16 17 17 17 17 15 14 13 13 12 11 11 10 10 11 11 12 12 12 12 12 12 13
36 36 35 34 33 32 32 32 32 31 29 27 26 23 21 21 20 19 18 18 17 17 17 18 17 16 15 15 14 13 13 12 12 12 12 12 12 12 13 13 13 13 13 13
37 36 35 35 33 33 34 33 33 33 31 29 27 25 23 21 20 19 19 18 18 17 18 18 17 17 17 16 15 14 14 13 14 13 13 13 13 13 14 14 14 14 14 15
36 36 35 34 34 35 34 33 33 34 33 32 30 27 25 23 21 20 19 19 19 19 19 19 19 19 19 18 17 16 15 15 16 16 15 15 16 15 15 15 15 15 16 16
37 37 36 36 36 37 36 34 33 33 33 32 31 29 27 25 24 22 20 20 20 21 22 22 22 22 21 19 19 18 18 17 18 18 17 16 17 17 17 17 17 17 17 17
38 38 38 37 37 38 36 35 34 34 34 32 31 30 29 27 26 23 22 22 22 22 23 23 23 23 21 20 21 20 19 19 20 19 18 18 18 18 19 19 19 18 18 18
39 39 39 39 38 38 36 35 34 35 34 33 32 31 30 29 27 26 25 25 24 23 23 23 23 23 22 22 22 21 21 21 20 20 20 20 20 20 20 20 20 19 19 19
40 40 41 40 40 39 37 35 35 35 34 34 32 31 30 29 29 28 27 27 26 26 26 25 24 24 23 23 23 22 22 22 22 21 21 21 21 21 20 20 20 20 20 20
42 42 41 42 41 40 38 37 36 35 34 34 33 32 31 30 30 29 29 30 30 29 28 27 27 26 26 25 24 24 24 24 25 24 23 23 22 22 21 21 21 21 22 22
43 43 42 42 42 41 39 38 36 35 35 35 34 33 32 32 32 32 32 32 33 32 30 29 30 29 28 28 27 27 27 27 26 26 25 25 24 24 24 24 23 23 24 24
43 43 43 42 42 41 40 39 37 36 35 35 35 35 35 34 34 33 34 34 35 33 33 31 30 30 30 30 29 29 28 28 28 27 27 26 26 25 25 25 25 25 26 25
42 42 42 42 42 42 41 40 39 37 36 35 35 36 36 36 36 34 34 36 37 36 35 33 32 32 31 31 31 31 30 30 30 29 28 28 27 27 27 27 27 27 27 27

GEFSCGP_500_meanwind_174.txt.gz
Wind_Speed
16 15 14 13 11 10 9 7 6 5 2 1 2 3 4 6 9 10 11 12 12 13 13 14 14 14 13 13 13 12 11 11 9 7 4 3 2 1 1 1 1 2 3 3
17 17 16 14 12 11 10 8 7 6 4 3 3 4 5 6 8 9 9 11 12 12 12 13 13 13 13 12 13 12 11 11 10 8 5 3 3 2 2 2 2 3 3 4
19 19 17 15 14 13 11 10 9 8 6 6 5 6 7 7 8 8 8 10 11 12 12 12 12 13 13 12 13 12 12 11 10 8 7 5 3 3 3 3 3 4 4 5
21 20 18 17 16 14 14 13 11 9 8 8 6 7 10 8 7 7 8 9 10 11 11 11 11 12 12 12 13 12 12 11 10 9 8 6 5 5 4 4 4 4 4 5
23 20 19 19 18 16 16 14 12 11 10 9 9 7 9 8 8 8 8 9 9 10 11 11 11 12 12 12 12 12 12 12 10 10 8 6 5 5 5 5 4 4 4 4
24 21 21 20 19 18 17 15 13 12 11 11 11 9 9 9 8 8 8 8 9 10 11 12 12 12 12 12 12 12 12 11 10 9 8 7 6 6 5 5 5 5 5 5
25 23 22 21 20 19 18 16 14 12 12 12 12 10 10 10 9 8 9 9 9 10 12 12 12 13 12 12 12 12 11 10 9 8 7 7 6 6 6 6 6 5 6 6
26 26 24 22 22 21 20 18 16 13 12 13 13 11 11 10 10 9 9 9 9 10 12 12 13 13 13 13 13 12 11 9 9 8 7 7 7 7 7 7 7 7 7 7
28 28 26 25 24 23 22 21 19 17 15 13 13 12 11 10 10 10 10 10 9 10 12 13 13 13 14 14 14 13 11 10 9 9 8 8 8 8 8 7 7 8 8 8
29 29 27 26 25 26 25 23 22 19 17 15 14 12 12 11 10 10 10 10 10 11 12 13 13 13 14 14 13 12 12 11 10 9 8 9 9 9 9 9 9 9 9 8
30 29 29 28 28 27 26 25 24 21 19 15 13 13 13 12 11 11 11 11 11 12 13 13 14 14 14 13 12 12 11 10 10 9 9 9 10 9 8 9 10 10 10 11
30 30 29 29 29 28 27 26 25 23 22 18 15 15 14 13 12 12 12 12 12 13 14 14 14 14 14 13 12 12 10 10 10 9 10 10 10 9 9 10 10 11 11 12
32 31 30 30 30 30 29 27 26 24 23 20 17 16 16 14 13 13 13 13 13 14 14 15 15 14 13 12 12 12 10 10 10 10 10 11 11 11 11 11 11 12 13 14
33 33 31 28 26 28 29 28 27 25 23 22 20 18 18 15 14 14 15 15 14 14 14 15 14 14 13 12 13 12 11 11 11 10 10 11 11 11 12 12 12 13 13 14
34 33 32 31 30 30 29 29 28 27 25 23 21 20 19 17 16 16 16 15 15 15 15 15 15 15 14 13 14 14 12 11 11 11 11 12 12 13 13 14 14 14 14 14
35 34 33 33 33 31 31 31 30 29 27 26 24 23 21 19 18 17 16 16 16 16 15 15 15 16 15 15 15 15 14 13 12 12 12 13 14 15 15 15 15 16 16 16
36 35 34 33 33 33 34 32 32 30 29 28 27 25 23 22 20 18 17 16 16 17 17 17 17 17 17 16 16 16 16 15 14 13 14 14 15 16 17 17 17 17 17 17
35 35 34 33 34 34 33 33 32 31 30 29 28 27 26 24 23 22 20 19 18 18 19 19 18 18 18 18 18 18 17 16 16 15 15 16 17 18 18 18 19 19 18 19
34 34 34 33 33 34 35 34 32 31 31 30 29 28 27 26 25 24 22 21 20 20 20 20 19 19 19 19 19 18 18 18 17 17 18 19 19 19 19 20 20 20 20 20
34 34 34 34 32 32 34 34 32 32 32 32 30 29 27 26 26 26 25 24 23 23 22 22 21 20 20 20 20 20 20 20 19 20 20 20 20 20 21 21 21 21 20 20
35 34 34 33 32 32 34 33 32 32 32 31 30 30 29 28 28 27 26 26 25 25 25 25 24 23 22 22 22 21 21 21 22 22 22 22 21 22 21 21 22 22 22 22
36 34 34 33 32 34 35 33 33 33 32 31 30 30 30 29 29 28 28 27 27 27 27 27 26 25 24 24 24 23 23 23 23 23 23 22 22 22 22 22 23 23 23 23
38 37 35 35 35 35 34 34 34 33 32 32 31 31 31 30 29 29 29 29 29 29 29 29 29 28 27 26 26 25 24 24 23 23 23 23 23 24 23 24 24 24 24 24
38 37 37 37 37 36 35 35 35 34 34 33 32 31 31 30 30 30 30 30 29 30 30 31 31 30 30 29 29 28 28 26 26 26 25 25 25 25 25 25 25 25 25 25
37 37 38 38 38 38 37 36 36 36 35 34 34 32 31 30 30 30 30 30 31 31 32 32 32 32 32 30 30 30 29 29 28 28 28 28 28 27 27 27 27 27 27 27
37 37 37 37 38 38 38 37 37 37 36 36 35 34 33 32 31 31 30 30 30 31 32 32 32 32 32 32 32 31 31 31 31 31 30 30 29 28 28 28 28 28 29 29

GEFSCGP_500_meanwind_180.txt.gz
Wind_Speed
15 14 12 9 8 10 8 7 7 7 9 7 7 5 7 10 11 11 12 12 12 13 14 15 16 16 17 17 16 16 15 15 14 12 10 9 8 8 7 5 4 3 3 3
15 14 13 13 13 13 10 9 7 7 10 8 7 7 7 8 10 11 11 11 12 12 13 14 15 16 16 16 16 15 15 15 14 13 11 9 8 7 6 5 4 3 3 3
16 13 14 16 14 13 12 10 8 9 10 9 8 9 11 8 9 9 11 12 12 12 13 14 15 15 15 15 15 15 16 15 15 13 12 10 8 7 5 5 4 4 3 3
17 16 17 17 15 14 12 11 11 11 10 10 9 12 14 12 11 10 10 10 11 12 13 14 14 15 15 15 15 15 15 15 14 13 12 10 8 7 5 5 4 4 4 4
19 19 19 19 17 14 13 13 13 12 12 11 9 11 14 14 11 10 11 11 11 11 12 13 14 15 15 15 15 15 15 15 14 13 11 9 9 8 6 5 5 5 5 5
20 20 20 19 18 17 16 15 13 12 11 11 9 11 13 14 12 12 12 12 12 12 12 13 14 15 15 15 16 16 15 15 14 13 11 9 9 8 6 6 7 6 6 6
22 21 21 20 19 19 17 15 13 11 12 12 11 11 14 14 12 13 13 13 12 11 12 13 14 14 15 16 16 15 15 15 14 13 12 10 9 9 8 8 8 8 8 7
20 21 21 21 20 18 18 17 14 12 12 13 11 11 13 15 16 15 14 13 12 11 12 12 14 14 14 15 16 15 15 15 15 13 12 11 10 10 10 9 9 9 8 8
17 17 19 22 20 20 20 19 16 16 16 16 14 12 13 18 16 13 13 12 11 12 12 12 13 14 14 15 16 16 15 15 14 14 13 12 11 11 10 9 9 9 9 8
21 19 19 20 21 21 20 19 18 19 18 17 16 13 16 18 14 13 13 13 12 12 13 13 14 14 15 17 17 16 15 15 15 14 13 12 12 12 11 10 10 10 10 9
26 24 20 21 23 21 21 22 22 21 19 17 17 15 15 18 17 16 14 14 13 13 14 14 14 16 16 16 16 15 15 16 15 14 14 13 13 13 12 12 11 11 10 11
29 28 24 23 24 23 22 22 22 23 22 21 19 19 15 14 16 16 16 14 14 14 14 15 15 17 16 16 15 15 16 16 16 15 14 14 13 14 13 12 13 13 13 13
30 30 29 25 24 23 23 22 23 23 22 21 20 20 17 16 19 18 17 17 16 15 14 15 16 17 16 15 16 16 16 16 15 15 14 14 14 14 13 13 14 14 14 15
32 33 32 28 23 21 22 23 23 23 23 22 21 21 20 20 20 19 18 18 18 16 15 15 16 16 16 16 16 17 17 16 16 16 15 15 15 14 14 14 15 15 15 15
35 35 34 32 27 24 23 23 23 25 25 24 23 24 23 21 21 21 19 19 19 18 16 16 16 17 16 16 17 17 18 17 16 16 16 15 15 16 16 15 16 16 17 16
36 36 36 36 32 28 26 24 24 25 25 25 25 25 23 23 24 23 22 22 20 20 18 18 17 17 17 17 17 18 18 18 17 17 17 17 17 17 17 17 17 17 17 17
35 36 37 37 33 31 31 27 26 25 25 26 27 28 26 26 25 25 24 23 23 22 21 20 19 18 18 18 18 19 19 19 19 19 19 19 19 19 19 19 19 19 19 20
35 36 36 35 33 34 34 29 27 26 28 29 31 32 32 30 29 27 27 27 26 24 24 22 21 20 20 20 20 21 20 20 21 21 21 21 21 21 21 21 22 22 22 22
36 36 35 35 34 35 34 32 30 29 31 31 32 33 33 32 31 32 30 29 28 26 26 25 24 23 22 22 22 22 22 22 22 22 22 22 23 23 23 23 24 24 24 24
35 35 35 35 34 34 32 31 30 29 33 34 33 35 35 32 32 32 31 30 29 28 27 26 26 25 24 24 24 24 24 23 23 23 23 24 24 24 25 24 24 23 24 23
36 35 35 36 36 36 33 31 31 33 35 34 34 34 34 34 34 34 32 31 30 28 28 27 28 28 27 27 27 26 25 25 25 25 25 25 25 25 25 24 24 23 23 23
34 35 36 36 37 36 33 30 32 34 33 34 34 34 34 34 34 33 33 32 32 30 30 30 29 29 29 29 29 28 28 27 27 27 26 27 26 26 25 26 25 24 24 24
35 36 35 36 37 37 35 35 34 34 34 33 34 35 35 34 33 33 33 33 32 32 32 32 32 31 31 31 31 31 31 30 29 28 28 28 28 27 27 26 26 26 26 26
36 37 37 37 37 38 37 37 38 37 36 36 35 35 35 35 35 34 33 33 33 34 34 34 34 34 33 33 32 32 32 32 32 31 31 30 30 29 29 28 28 28 28 28
36 37 39 40 39 39 38 40 40 38 37 37 36 37 37 36 35 35 35 35 34 35 35 34 35 35 34 35 34 33 32 32 32 32 32 33 32 31 30 30 31 30 29 28
37 38 40 41 41 40 40 39 39 40 39 39 38 37 38 37 37 36 36 36 36 35 35 34 34 34 34 34 35 35 35 35 34 34 34 34 33 32 32 32 32 32 31 30

GEFSCGP_500_meanwind_186.txt.gz
Wind_Speed
20 19 17 16 15 13 9 6 4 3 3 5 8 10 11 10 10 11 11 13 13 13 14 14 15 16 16 16 16 17 16 14 13 11 10 9 7 6 5 4 2 1 1 3
21 19 18 17 16 14 10 8 6 4 5 6 7 8 9 10 10 10 10 12 13 12 12 13 13 14 15 15 15 16 15 14 13 11 10 9 7 6 5 4 3 1 0 1
21 20 20 19 17 15 12 10 9 7 8 9 9 8 10 10 11 10 10 11 12 11 11 12 13 13 13 13 14 14 14 13 13 12 10 9 8 6 4 3 3 1 0 1
23 23 23 21 19 17 14 13 11 9 9 10 11 10 10 10 10 10 10 10 10 11 10 11 12 12 13 13 12 13 13 13 12 12 11 8 7 6 5 4 3 2 1 1
24 23 24 23 20 18 18 15 14 13 12 12 13 13 12 11 10 10 10 10 9 9 9 10 11 12 12 12 12 12 12 12 12 11 11 9 7 6 6 5 4 3 3 2
23 24 24 23 20 20 19 18 18 17 16 15 14 15 14 12 11 11 10 10 10 9 9 10 11 11 11 11 11 11 12 12 12 12 11 9 8 7 5 4 4 4 3 3
24 24 24 23 21 21 21 20 19 19 19 16 15 16 14 11 12 12 11 10 10 9 9 10 12 12 11 11 11 11 11 12 12 12 11 9 8 7 6 5 5 4 4 4
25 24 23 23 23 21 20 21 20 19 17 15 14 15 14 13 12 12 11 11 9 9 8 9 11 11 11 11 10 11 11 12 12 12 11 9 8 8 7 6 6 6 5 5
25 24 23 24 23 22 20 20 19 19 18 17 16 14 14 13 13 11 10 10 9 8 9 9 9 10 11 11 11 11 11 12 12 11 11 10 9 8 8 7 6 6 6 6
25 25 25 24 23 23 22 20 20 21 20 19 17 14 13 14 14 13 13 10 9 8 8 9 9 10 11 11 12 11 11 11 11 11 11 10 9 8 8 7 7 7 7 7
25 25 25 26 26 23 22 22 23 23 22 21 20 18 15 15 14 13 12 12 11 9 8 10 10 11 11 11 12 12 11 11 11 11 11 10 9 8 8 7 7 7 7 8
27 27 27 27 26 24 22 22 23 25 24 23 23 21 16 15 15 14 14 12 12 10 10 11 11 11 11 12 12 11 11 11 11 11 11 10 10 9 8 8 8 8 9 9
29 30 29 28 27 26 25 23 23 25 26 26 26 24 20 18 17 17 16 14 14 14 13 12 11 11 11 12 11 11 12 12 12 11 11 10 10 10 10 10 9 10 10 10
30 32 31 30 28 27 27 26 25 26 28 28 28 27 23 21 19 17 16 15 15 14 13 12 11 12 12 13 12 12 12 12 12 11 11 11 11 12 12 11 11 11 11 12
32 33 33 32 31 30 29 29 28 28 28 29 29 29 26 24 22 20 19 17 17 16 14 14 13 13 13 14 13 13 14 13 13 13 12 12 13 13 13 13 14 14 14 14
34 35 34 34 33 33 31 30 30 31 30 30 30 30 27 25 25 24 22 21 19 18 17 16 15 15 15 14 15 15 15 15 15 15 15 14 14 15 15 15 15 16 16 16
36 36 36 36 35 35 35 33 33 33 33 32 32 31 29 28 26 26 25 24 22 19 19 19 19 19 18 17 16 16 16 16 16 16 16 16 17 17 17 17 17 17 17 18
38 38 38 37 36 38 36 33 34 35 34 33 33 32 31 30 29 28 27 27 24 23 22 22 22 22 21 20 19 18 18 18 18 18 18 18 18 18 18 18 18 19 19 20
38 39 39 39 39 38 36 35 36 36 36 35 35 33 32 32 33 32 29 28 27 27 26 25 24 24 24 22 21 21 20 21 20 20 20 20 20 20 19 19 20 20 21 22
39 39 40 40 40 40 37 36 37 38 38 37 36 36 34 35 35 32 30 30 30 29 28 27 26 27 26 24 23 23 22 23 23 22 22 22 22 22 21 21 21 21 23 23
39 38 39 39 40 40 37 36 36 38 39 37 38 38 37 36 35 34 33 33 32 32 31 29 28 28 27 27 26 25 24 24 25 25 25 24 24 24 23 23 23 23 24 24
38 39 39 40 40 39 38 37 37 38 38 38 38 39 38 36 35 36 35 34 34 34 33 32 31 29 29 29 28 28 27 27 27 27 27 26 26 26 25 25 25 25 25 26
39 39 40 40 40 39 38 38 38 38 38 37 38 38 38 37 36 37 36 35 35 35 34 34 33 31 30 30 30 30 30 29 29 29 29 28 28 28 27 27 27 27 27 27
38 39 39 40 39 39 39 38 39 38 38 38 38 36 35 36 35 36 36 36 36 36 35 35 34 34 33 32 32 32 32 31 31 31 31 30 30 29 28 29 29 28 28 28
37 38 39 40 40 40 40 39 39 38 38 38 39 38 36 35 36 36 36 35 36 36 36 36 35 34 34 34 33 33 33 32 32 33 32 32 32 30 29 29 29 29 28 27
37 38 38 39 40 41 40 40 39 39 39 39 39 40 38 36 37 36 37 36 36 36 35 35 35 35 35 34 34 34 33 34 34 34 34 33 32 32 31 31 30 30 30 29

GEFSCGP_500_meanwind_192.txt.gz
Wind_Speed
22 21 20 18 17 15 13 11 9 7 5 4 3 4 5 6 7 8 10 11 12 12 13 13 13 13 13 14 14 14 14 13 12 10 9 8 7 5 3 3 3 2 2 1
24 23 21 21 19 17 15 13 11 10 8 7 5 5 4 6 7 8 9 10 11 11 11 11 12 12 13 13 13 13 13 12 12 10 9 8 7 5 3 3 2 2 2 2
25 24 24 23 21 19 17 16 14 13 12 10 8 7 7 6 7 7 9 10 10 10 10 10 11 11 11 12 12 12 12 12 11 10 9 8 7 5 4 3 2 2 2 3
25 25 25 24 23 21 19 19 18 16 15 13 11 10 8 7 7 8 9 10 10 10 9 9 10 10 10 11 11 11 12 12 11 11 10 8 7 5 4 4 3 2 2 3
27 26 26 25 24 22 21 21 20 19 17 15 13 12 9 9 8 9 9 9 10 11 9 9 9 10 10 10 11 11 12 12 12 11 10 9 8 7 6 5 4 3 4 4
28 27 27 26 26 25 24 24 22 21 19 17 16 15 12 11 10 10 11 11 10 10 9 9 9 10 10 10 11 11 11 12 12 11 10 9 9 8 7 6 6 5 5 5
28 28 27 27 27 27 27 25 24 23 21 20 18 18 15 12 12 12 13 12 11 10 9 9 10 10 10 10 11 11 11 12 11 11 10 10 9 8 8 7 6 6 6 6
28 28 28 28 28 28 27 26 26 25 24 22 21 20 17 15 14 15 15 14 12 11 10 10 10 9 10 11 12 12 12 12 11 11 11 11 10 9 8 7 7 7 6 6
28 28 28 28 29 29 29 29 27 26 25 24 23 21 19 17 16 15 15 14 12 11 11 10 9 9 10 11 12 13 13 13 12 12 11 11 11 9 8 8 8 8 7 6
28 28 29 29 29 30 31 30 29 28 27 26 24 22 19 17 17 16 14 13 11 11 11 10 10 10 11 12 12 13 14 13 12 12 12 11 10 9 8 8 8 8 8 8
29 29 29 29 30 29 30 30 30 29 28 28 26 23 19 17 16 16 15 14 12 12 12 13 13 12 12 12 13 13 14 13 12 12 12 11 10 9 8 8 8 9 10 10
30 30 30 30 30 31 31 31 30 30 29 28 27 23 19 18 17 16 15 15 15 15 14 14 13 13 13 13 13 13 14 13 12 12 12 11 10 9 9 9 9 10 10 11
31 31 30 31 31 32 32 32 32 31 30 29 28 24 21 20 19 18 18 17 17 17 16 15 14 14 14 14 14 14 13 13 13 13 13 12 11 11 11 11 11 12 12 12
31 31 31 30 31 31 31 32 31 31 31 31 29 26 24 22 21 20 20 20 19 18 18 17 16 16 16 15 15 15 15 14 14 14 13 13 13 13 13 13 14 14 14 14
31 31 31 30 30 32 32 32 32 31 31 31 29 28 26 24 23 22 22 21 20 19 18 17 17 17 16 15 15 15 15 15 15 15 14 14 14 15 15 15 15 15 16 16
33 33 32 32 32 32 33 33 33 32 32 31 30 29 27 27 25 24 23 22 21 20 20 19 18 18 17 16 16 16 16 16 16 16 16 16 17 18 18 17 17 18 18 18
35 36 34 34 33 32 33 33 33 33 33 33 32 31 30 29 28 27 26 25 23 22 22 21 21 19 19 17 17 17 17 18 18 19 19 19 19 20 20 20 20 20 19 19
36 36 36 36 35 36 34 34 33 33 33 34 34 33 32 31 29 28 27 27 25 23 22 22 22 21 20 20 20 20 20 20 20 21 22 21 22 22 22 23 23 22 20 20
39 38 38 38 38 37 36 35 35 34 34 34 34 34 34 33 31 30 28 27 27 26 25 24 24 24 23 23 22 22 22 22 23 23 23 23 24 24 24 24 24 23 21 21
41 41 40 40 40 40 38 37 36 36 37 35 35 35 34 34 33 31 30 29 29 28 27 27 27 26 25 25 24 24 25 25 25 24 24 24 24 24 24 24 23 23 23 23
41 41 42 42 41 40 39 38 37 37 37 36 36 36 36 36 35 33 32 31 30 30 29 29 29 29 28 28 27 26 26 26 27 26 26 25 25 24 24 24 24 24 25 25
41 42 42 42 42 42 39 38 38 37 36 36 36 37 37 37 37 35 34 32 31 31 31 30 30 30 30 30 29 29 29 28 29 29 28 27 26 26 25 25 25 26 26 27
39 40 40 42 42 41 40 39 38 38 37 37 36 37 37 37 37 36 36 35 34 33 33 33 33 31 31 32 32 31 31 32 31 31 30 29 28 28 28 27 27 27 27 28
37 37 39 40 41 40 39 39 39 39 38 38 38 38 38 38 37 37 36 36 36 36 35 34 34 33 33 32 33 32 31 31 32 32 32 32 30 29 29 28 28 28 29 29
36 37 37 38 39 39 39 39 39 39 39 39 38 38 38 38 38 38 37 37 37 36 35 35 34 34 32 32 33 33 32 33 33 33 33 32 31 29 29 29 29 30 30 30
36 36 37 38 38 39 39 39 40 40 40 40 40 39 38 39 38 38 39 38 37 37 36 36 35 35 33 32 32 33 34 34 33 33 33 32 30 29 30 30 31 31 32 32

GEFSCGP_500_meanwind_198.txt.gz
Wind_Speed
19 17 16 15 14 13 12 9 8 7 5 3 2 2 3 4 5 7 9 10 11 11 11 12 12 13 14 13 14 13 12 12 12 10 9 8 7 7 5 4 3 3 2 1
21 20 19 18 17 15 13 11 10 9 8 6 4 4 4 4 4 6 7 9 10 10 11 11 11 12 12 12 13 13 12 12 11 10 9 8 8 7 6 5 4 3 3 2
23 22 21 20 18 17 15 13 12 11 10 8 7 6 6 5 5 6 7 9 10 10 11 10 11 12 12 11 12 12 12 12 11 10 10 9 8 7 6 5 4 4 4 3
26 25 23 21 21 18 17 16 14 13 10 10 9 7 8 7 7 8 8 9 10 10 10 9 10 11 11 10 11 11 12 11 11 10 10 9 8 7 6 5 5 5 4 4
26 26 24 23 23 21 20 18 16 15 13 12 12 9 9 9 8 9 9 10 11 11 11 9 9 9 9 10 10 11 11 11 11 11 10 9 8 7 7 6 6 6 5 4
27 26 26 25 24 23 22 20 19 17 16 15 14 12 11 11 10 10 11 11 12 12 11 10 9 9 10 10 10 11 11 10 10 10 9 9 8 7 7 7 7 7 6 6
28 27 26 26 25 24 23 21 19 17 17 17 17 15 13 13 12 12 12 12 13 12 11 10 10 10 11 10 11 11 11 11 11 10 10 9 9 8 8 8 7 7 7 6
28 28 28 27 26 25 24 22 21 18 16 16 18 16 14 14 14 14 14 13 12 11 11 11 11 11 11 11 11 11 11 13 12 11 11 10 9 9 8 8 8 8 7 7
28 28 28 28 27 27 27 25 23 21 20 18 17 17 15 15 15 15 15 14 12 12 12 12 12 11 12 12 12 11 12 12 12 12 11 11 10 9 9 9 8 8 8 8
29 28 29 29 28 28 28 26 25 23 22 20 19 18 16 15 15 14 14 14 13 13 13 13 12 12 13 13 13 12 12 12 12 12 12 12 11 10 10 10 9 9 9 9
30 28 28 29 29 28 28 28 27 25 24 21 20 19 19 17 16 15 15 14 14 14 14 14 14 15 15 15 15 14 13 12 13 13 13 12 11 10 10 10 10 10 10 10
29 29 27 28 29 29 29 28 27 26 26 25 22 20 21 19 17 16 16 15 15 15 15 15 16 17 17 16 16 16 15 15 15 14 13 12 11 11 10 11 11 11 11 11
30 30 28 27 29 30 30 30 29 28 27 26 23 21 23 21 19 18 18 17 18 17 17 17 17 17 17 17 16 16 16 15 14 14 14 13 12 12 12 12 12 12 12 12
30 30 29 26 26 28 30 30 30 29 27 26 25 24 24 23 22 21 20 20 19 19 19 19 18 18 18 18 17 17 17 17 17 16 16 15 14 13 13 13 14 14 14 15
29 30 30 30 29 29 29 30 30 30 29 28 26 26 25 24 23 22 22 21 21 21 21 20 20 20 20 20 19 19 18 18 18 18 18 17 16 16 15 15 15 16 16 17
29 29 29 30 29 29 29 29 30 30 30 30 29 28 26 25 25 24 23 23 22 23 22 22 22 22 22 22 21 21 19 19 18 19 19 19 18 18 18 17 18 18 18 18
29 29 30 29 30 29 30 30 30 30 30 29 29 29 27 27 26 26 25 24 24 23 23 23 23 23 23 23 23 22 20 20 20 20 20 20 19 20 20 20 20 20 20 19
31 30 30 29 30 30 31 30 30 31 31 30 30 29 28 27 27 26 26 26 25 24 24 25 25 24 24 25 24 24 22 22 22 22 22 22 21 21 22 22 22 23 23 22
33 32 32 31 30 31 32 30 29 30 31 30 30 29 29 28 28 28 28 28 28 27 26 27 27 27 26 26 26 26 25 25 24 24 24 25 25 24 25 24 23 24 24 23
33 33 33 33 31 31 33 31 30 29 32 31 31 31 30 30 30 30 30 30 30 29 29 29 30 29 29 29 29 28 28 28 28 28 28 26 26 27 26 25 25 25 25 26
34 34 34 33 33 33 35 33 32 32 33 32 32 32 32 32 32 32 31 31 31 31 31 31 31 31 30 30 30 30 30 30 30 30 30 29 28 28 28 28 28 28 27 27
33 34 34 34 34 35 36 34 34 34 34 34 33 33 33 33 33 33 33 32 32 33 33 32 32 32 32 32 31 31 31 31 31 31 31 30 30 31 31 31 30 29 29 29
34 35 35 35 35 35 34 35 35 35 35 35 34 34 34 34 35 34 34 34 34 34 34 33 33 34 33 34 34 33 33 33 34 33 33 33 33 32 32 32 31 30 30 30
34 34 34 35 35 34 34 34 35 36 36 36 36 36 36 35 35 35 34 35 35 35 35 35 35 35 35 35 35 36 35 35 36 35 36 34 34 33 32 33 32 31 31 31
34 34 34 35 35 35 35 34 34 34 35 36 36 37 36 36 35 35 35 35 35 35 36 36 37 37 37 36 37 37 37 38 37 37 37 36 36 35 35 34 33 33 33 33
33 34 34 35 34 35 35 35 34 34 34 35 36 36 36 37 37 36 35 35 35 35 35 36 36 37 37 37 37 38 38 38 38 38 37 37 37 36 36 36 35 35 35 35

GEFSCGP_500_meanwind_204.txt.gz
Wind_Speed
14 14 13 11 11 11 8 8 7 5 6 6 8 9 9 8 9 9 9 10 10 11 12 13 13 14 15 15 15 15 14 14 13 12 12 11 10 10 8 8 6 5 5 4
16 16 15 15 14 14 12 10 8 8 8 7 8 10 10 8 10 10 10 10 9 10 11 12 12 13 13 13 13 14 14 14 14 13 12 11 11 10 8 7 7 6 6 5
17 16 15 15 15 15 13 12 12 11 8 8 10 12 12 10 8 11 12 10 9 9 10 11 11 11 12 12 13 13 13 14 14 13 13 12 11 10 9 8 7 6 6 6
20 19 19 17 17 16 14 13 13 11 10 11 11 14 15 15 11 10 12 11 9 10 9 10 10 10 11 12 12 12 13 13 14 13 12 12 11 11 9 8 8 7 7 6
21 20 21 20 18 17 16 15 14 14 13 14 13 16 15 15 12 10 11 11 11 10 10 10 10 10 11 12 12 12 13 13 13 13 12 12 12 11 10 9 8 8 7 7
23 22 23 22 20 20 18 17 16 15 15 17 15 15 17 17 14 13 11 9 10 11 11 11 11 11 11 12 12 12 12 13 13 13 13 13 12 11 10 9 8 8 8 7
24 23 23 22 22 21 20 18 15 16 17 17 16 15 18 19 17 16 14 13 12 13 12 12 12 12 12 12 12 12 12 13 14 14 13 13 12 12 11 10 10 9 8 8
23 23 24 23 23 21 20 19 19 19 19 19 17 16 17 17 17 17 16 15 16 14 14 14 13 13 12 12 12 11 12 13 14 14 13 13 13 13 12 12 11 10 9 9
20 21 21 24 23 22 21 21 19 20 20 21 20 17 17 16 16 16 17 17 19 18 16 15 14 13 13 13 13 13 13 13 14 15 14 13 13 13 13 12 11 11 11 10
24 22 20 22 24 24 23 21 20 21 22 21 19 18 16 18 17 17 17 19 20 19 18 17 15 15 14 14 14 14 14 14 14 14 14 13 13 13 13 12 12 12 11 11
28 26 22 22 25 24 23 23 23 23 22 21 20 22 19 18 20 19 18 19 20 21 19 17 16 15 15 16 16 15 15 15 15 15 15 14 14 14 13 13 12 13 13 13
28 28 26 23 24 22 23 24 23 24 24 23 21 22 20 19 20 20 20 20 19 19 20 18 18 16 16 17 18 18 17 17 16 16 16 16 15 15 14 14 14 14 14 14
30 30 28 24 22 22 23 24 23 23 23 23 21 22 23 21 20 21 22 23 22 20 20 21 21 18 18 19 19 19 19 18 17 17 18 18 17 16 16 16 15 16 16 16
31 31 30 26 23 22 23 23 23 23 23 22 22 23 23 24 24 23 23 24 24 22 22 23 23 22 22 22 21 21 21 20 20 19 19 19 18 17 17 17 18 18 18 18
31 32 32 31 26 23 22 22 24 25 25 24 23 24 26 26 26 26 26 25 26 26 24 24 25 25 25 24 23 23 23 23 22 21 20 20 20 19 20 20 20 19 20 20
31 32 31 31 29 27 24 24 24 24 24 25 25 27 26 27 29 27 28 27 28 26 26 26 26 27 27 26 25 24 24 24 23 22 21 21 22 22 22 22 22 22 21 21
29 30 31 29 28 28 28 25 25 24 24 26 27 30 32 30 30 28 28 29 29 29 27 27 27 28 28 28 27 25 25 24 24 24 23 24 23 23 23 23 23 23 22 22
30 30 30 28 27 28 29 28 27 27 28 28 29 30 32 32 32 31 31 31 31 29 28 28 28 28 29 29 28 27 27 25 25 25 25 25 26 25 26 25 25 25 25 25
29 31 31 29 27 27 27 28 27 28 29 31 31 31 33 34 33 33 33 33 33 30 29 29 29 29 30 30 30 29 28 28 28 27 27 26 27 27 27 27 27 27 27 27
29 30 31 30 28 26 29 30 29 28 30 32 33 33 34 33 33 34 33 32 32 31 30 29 29 30 30 30 30 30 30 30 30 30 29 29 28 28 29 29 29 29 30 30
27 29 30 30 29 29 33 32 29 30 32 33 34 34 35 35 36 35 33 33 32 31 30 31 31 31 31 31 31 31 31 31 31 31 31 31 31 31 31 30 30 30 31 31
26 27 29 30 30 33 35 34 32 34 34 33 34 35 35 35 36 36 34 35 34 32 32 32 32 32 32 32 32 32 32 32 32 32 32 32 33 33 33 32 32 32 32 32
30 29 29 31 33 35 35 35 35 35 36 36 37 37 37 36 36 36 36 36 35 35 34 34 34 34 34 34 34 34 33 33 33 33 33 33 34 34 34 34 34 34 34 33
31 32 33 34 36 36 36 36 35 34 35 36 38 39 38 37 37 37 38 38 38 37 37 36 36 36 36 36 36 36 35 35 35 35 34 34 35 35 35 35 35 35 35 35
32 31 32 34 35 35 37 37 36 35 36 36 37 38 37 38 38 38 38 38 38 38 37 38 38 38 38 37 37 37 38 38 37 37 36 36 37 37 37 37 37 37 37 37
31 32 33 34 36 37 36 37 36 36 37 37 37 37 38 38 38 39 39 39 39 38 38 38 38 38 38 38 37 37 38 38 37 37 37 38 38 38 38 38 38 38 38 38

GEFSCGP_500_meanwind_210.txt.gz
Wind_Speed
22 20 18 16 14 11 10 9 8 7 7 8 8 7 6 7 8 9 11 10 10 10 11 12 12 12 13 13 14 14 13 12 12 12 11 10 10 9 8 7 6 5 3 2
23 20 18 18 16 14 12 11 8 6 7 8 8 9 7 7 8 8 8 8 8 8 9 10 10 10 11 12 13 13 12 12 11 11 11 10 10 9 8 7 6 5 4 2
24 20 21 20 19 17 14 12 9 9 10 11 11 10 9 9 8 8 8 8 8 8 8 9 9 9 10 11 12 12 12 11 10 10 10 10 10 9 9 8 7 5 4 4
25 23 24 23 21 18 16 13 13 13 14 15 14 12 11 10 11 10 9 8 7 8 8 8 8 8 9 9 10 11 11 11 10 10 9 9 9 9 8 8 7 6 5 5
25 25 26 25 22 20 18 16 17 17 16 18 17 16 14 14 14 12 9 8 7 7 7 7 6 7 7 9 10 10 11 11 10 10 9 9 9 9 8 8 8 7 5 5
26 26 27 26 23 22 19 19 20 20 19 19 18 18 16 17 16 13 11 9 7 7 8 7 7 7 7 9 9 10 10 10 11 10 10 9 8 8 8 8 8 7 6 5
27 27 26 25 24 22 21 21 22 23 22 20 18 20 19 17 15 13 11 9 9 9 8 8 8 8 8 8 9 10 10 10 10 10 10 9 8 8 8 8 7 7 6 6
28 28 26 25 24 22 20 22 23 23 22 21 20 21 19 18 16 14 12 10 9 9 9 8 9 8 8 9 9 9 10 10 10 10 10 9 9 8 8 7 8 8 8 7
27 27 25 24 23 24 22 23 23 23 23 22 22 21 20 18 17 15 14 11 9 10 10 10 11 11 10 9 9 10 11 11 11 11 11 10 10 9 9 8 9 9 8 8
26 26 25 25 25 25 24 23 24 25 23 23 24 23 21 19 18 17 15 12 12 12 14 14 14 12 12 11 10 10 11 12 11 12 11 10 10 10 10 9 9 9 9 8
27 28 27 27 27 26 25 25 26 27 26 25 25 24 21 19 17 15 14 14 14 14 14 15 14 13 14 14 14 13 13 13 12 12 12 11 11 11 11 11 10 10 10 10
28 29 30 29 27 26 26 25 25 27 27 26 26 25 22 21 18 17 16 16 15 15 16 16 16 16 15 16 16 16 15 14 14 13 13 13 14 13 13 13 13 13 12 12
29 30 30 30 29 27 27 25 24 26 28 28 29 26 25 23 21 20 19 18 18 16 16 17 18 18 18 18 18 17 16 16 16 15 14 15 15 15 16 16 16 15 14 13
30 31 32 31 31 30 29 28 27 27 29 29 29 27 26 25 25 23 21 20 18 17 17 19 20 21 21 20 20 19 18 18 17 16 17 17 17 17 17 17 16 17 16 16
32 33 32 32 32 32 32 31 29 29 29 30 29 29 27 26 25 24 23 22 21 20 20 22 23 23 22 21 21 21 20 20 19 19 19 19 19 19 19 19 18 18 18 18
33 33 33 33 32 33 33 32 31 31 31 31 31 30 28 28 27 25 25 24 24 24 24 24 24 24 24 23 23 23 22 23 21 21 21 20 21 20 21 20 20 19 19 19
34 34 34 33 33 34 35 33 32 32 30 30 30 30 30 30 30 27 26 26 27 27 26 26 25 26 25 24 24 24 24 24 23 23 23 23 23 22 22 22 22 21 21 20
33 33 33 34 34 36 35 34 33 32 32 31 30 30 30 30 30 30 30 30 29 28 28 27 27 26 25 25 25 26 27 26 25 25 25 25 25 25 24 24 23 22 21 21
31 32 33 33 33 35 35 36 36 35 33 33 33 32 32 31 33 33 32 30 29 27 27 27 27 27 26 25 26 26 27 27 26 26 26 26 27 26 25 24 25 24 23 23
30 31 32 32 33 34 34 35 36 37 37 36 35 34 33 32 32 32 32 32 31 30 30 30 29 28 28 28 27 27 28 28 28 28 28 28 28 27 27 26 26 25 25 25
30 30 31 31 33 35 34 35 35 37 38 37 36 36 34 33 33 33 34 34 34 32 32 32 32 31 31 31 30 30 29 29 29 29 29 29 28 28 27 27 27 27 27 26
31 31 31 32 33 35 35 35 36 36 36 36 37 36 34 34 34 35 36 36 36 35 35 35 34 34 34 33 32 32 31 30 30 31 30 30 29 29 29 29 29 29 29 28
32 31 32 33 34 34 34 34 35 35 36 36 37 36 37 36 36 37 38 38 38 37 36 36 37 36 36 35 34 33 33 32 31 31 31 30 30 31 31 32 32 31 31 31
33 32 32 32 33 33 33 34 34 35 36 37 38 37 37 37 38 38 38 38 38 38 38 38 38 38 37 37 35 35 34 33 33 33 32 32 32 33 34 34 33 34 34 35
33 33 32 32 31 31 31 33 34 34 35 37 37 38 37 37 37 38 38 38 37 38 37 37 37 37 37 37 36 36 36 36 35 35 34 34 34 35 35 36 35 35 35 36
33 33 32 33 33 33 34 33 34 34 34 35 36 36 37 38 37 37 37 36 36 37 37 36 36 36 36 36 37 38 38 37 37 36 36 36 37 38 38 38 37 37 37 37

GEFSCGP_500_meanwind_216.txt.gz
Wind_Speed
26 25 22 20 18 17 15 12 10 8 8 6 5 4 4 5 5 5 6 7 6 7 7 7 8 9 11 11 11 11 11 11 11 10 10 9 8 7 6 6 5 4 3 3
28 27 23 22 22 20 18 15 14 12 10 9 7 5 3 5 5 4 4 5 5 6 6 6 6 7 8 9 9 10 11 11 10 10 10 9 8 7 7 6 5 5 4 3
30 28 27 26 24 22 21 19 17 15 13 12 10 8 6 5 5 4 5 5 5 5 5 6 6 6 6 7 8 8 9 10 10 10 10 9 9 7 6 6 5 5 5 4
31 30 30 28 26 25 23 21 20 18 17 15 14 13 8 8 7 6 5 6 6 5 5 5 5 5 5 6 6 8 8 9 9 10 9 9 8 8 7 6 5 5 5 4
31 31 31 30 29 27 25 24 23 21 20 19 17 17 12 11 9 8 7 7 7 6 6 6 6 6 6 6 6 7 7 8 8 9 8 9 8 8 8 7 6 5 5 5
32 32 32 30 30 29 28 27 26 24 24 23 20 19 16 13 11 9 9 8 9 8 8 7 7 7 7 7 7 7 7 8 8 8 8 8 8 8 8 7 6 6 6 6
33 32 32 31 31 31 30 29 28 27 27 26 23 22 19 16 14 13 12 11 11 10 9 9 9 9 9 8 8 9 8 8 9 9 8 8 8 9 8 8 7 7 7 7
32 32 32 31 31 31 31 30 30 29 28 26 26 24 20 18 16 15 15 14 13 12 12 11 10 10 10 10 10 10 9 9 9 10 10 9 9 9 9 9 8 8 8 8
31 31 31 31 31 31 31 30 29 29 28 27 26 25 21 20 20 18 16 15 14 12 13 13 11 10 11 11 11 10 10 11 11 11 11 11 10 10 10 9 9 9 9 9
31 30 30 31 32 32 31 30 30 30 29 28 28 26 24 21 21 20 18 17 15 14 14 14 13 12 12 13 13 11 10 11 12 13 13 13 13 13 12 11 11 11 11 11
30 30 30 31 32 31 32 31 31 31 31 30 28 26 24 22 21 20 18 17 16 15 15 15 14 14 15 15 14 13 13 13 13 14 14 15 15 14 13 13 13 14 14 14
28 28 29 30 31 32 32 31 31 32 31 31 30 28 25 22 21 20 18 17 16 17 17 17 16 16 16 17 16 16 16 15 15 15 16 16 16 16 15 15 16 16 16 17
28 29 29 30 32 31 32 32 33 32 32 32 31 29 26 24 22 20 19 18 18 17 18 19 18 17 17 17 18 18 17 18 17 17 18 18 17 17 17 17 18 19 19 20
29 30 29 29 30 31 32 32 32 32 33 32 31 29 27 25 24 22 20 20 19 19 19 19 19 18 18 18 18 18 19 19 19 19 19 20 20 19 19 20 20 21 21 21
29 30 30 29 29 31 32 32 32 32 32 33 31 30 28 27 25 24 22 22 20 20 19 20 20 20 19 19 19 20 21 21 20 20 20 21 21 22 22 23 23 23 22 22
30 30 30 29 29 30 31 32 33 32 33 33 33 31 28 28 26 26 24 23 22 22 21 21 20 19 19 20 20 21 21 21 21 21 22 23 23 24 24 24 24 23 24 23
31 31 31 30 29 30 31 32 32 33 33 33 32 30 30 29 27 27 26 25 24 24 23 22 21 20 21 22 23 22 23 23 24 24 24 24 24 24 24 25 24 24 25 25
33 33 32 31 31 33 32 32 33 34 34 32 32 30 29 28 28 28 27 27 26 25 25 24 24 23 24 25 26 26 25 26 26 26 26 25 25 25 26 26 26 26 26 26
34 33 33 33 34 34 34 33 33 33 34 33 32 30 30 29 28 28 28 28 28 27 27 27 27 27 27 28 28 28 28 28 28 27 27 27 27 27 26 27 27 27 27 26
34 34 35 35 35 35 34 33 33 33 34 33 33 32 30 30 29 29 29 29 30 30 30 30 30 29 29 30 29 30 30 29 28 28 29 29 29 28 28 28 28 28 28 27
33 33 34 34 35 35 34 33 33 33 33 32 32 32 32 31 30 30 31 31 31 31 31 32 32 31 32 33 32 30 30 29 29 29 29 30 30 30 30 29 29 29 30 29
33 33 34 34 34 34 32 31 31 31 31 31 32 31 32 32 32 32 33 33 33 32 32 32 33 33 34 34 33 32 31 30 31 32 32 32 32 32 32 32 31 31 31 31
33 33 32 32 32 31 30 30 30 31 32 32 32 33 33 33 33 33 34 34 34 34 35 35 35 35 35 35 35 34 33 33 33 34 34 34 34 34 34 33 33 32 32 32
33 34 33 32 31 31 31 31 30 31 32 32 33 33 33 34 35 34 34 35 35 36 37 37 37 38 36 36 36 35 35 35 35 35 35 36 36 36 36 35 35 35 34 33
34 34 34 33 32 32 32 32 31 31 32 32 33 34 34 34 35 36 36 36 36 36 37 37 37 37 36 35 36 37 37 37 37 36 37 37 37 37 37 37 37 37 36 35
32 33 33 33 32 32 32 32 32 32 32 31 32 33 34 34 35 36 36 36 36 37 38 37 37 37 36 36 36 36 37 37 37 37 37 38 37 37 37 36 36 35 36 36

GEFSCGP_500_meanwind_222.txt.gz
Wind_Speed
21 20 18 17 15 15 14 12 11 10 8 6 5 4 4 5 5 5 6 7 7 7 7 7 8 8 8 8 8 8 8 8 8 8 8 7 7 6 5 4 4 3 3 3
23 23 20 19 18 17 16 14 13 12 11 9 7 6 6 5 5 5 6 6 6 6 5 6 6 7 7 7 7 7 7 7 8 8 7 7 7 6 5 5 4 4 4 4
25 23 23 22 20 18 17 16 14 14 13 11 10 9 8 7 6 6 6 6 6 6 5 5 6 6 6 6 6 6 6 7 8 7 7 6 7 6 6 6 5 5 5 5
28 27 26 25 23 21 19 18 17 17 15 13 12 11 11 9 8 7 7 7 7 7 6 7 6 6 6 6 7 6 6 6 7 8 7 6 7 7 7 6 6 6 6 5
29 29 28 26 25 24 22 22 20 20 18 17 15 13 12 12 9 9 9 9 8 8 8 8 8 7 7 7 7 8 7 7 7 7 7 7 7 7 7 7 7 7 6 6
31 30 29 27 27 27 26 24 23 22 20 20 18 16 15 13 12 11 10 10 10 11 10 10 9 9 8 8 9 9 9 9 9 9 8 8 8 8 8 7 7 7 7 7
31 31 30 29 28 29 28 25 23 22 22 22 20 20 17 15 14 12 12 12 12 12 13 13 12 11 10 10 10 10 10 10 10 10 10 9 9 9 9 9 8 8 8 9
30 31 31 30 29 29 28 26 25 23 21 20 23 22 18 17 16 14 14 13 13 13 13 14 14 13 12 12 12 12 12 12 11 11 11 10 10 10 10 10 10 10 10 10
29 29 30 30 29 29 29 27 24 24 23 21 22 22 20 19 18 17 15 14 14 15 15 15 15 15 15 15 14 14 14 13 13 13 12 13 12 11 12 11 12 11 11 11
29 28 29 29 31 31 30 28 27 26 24 23 23 22 20 19 18 18 17 16 16 16 17 17 17 17 17 17 16 16 16 15 14 14 14 14 14 14 14 13 13 13 13 13
29 27 27 29 31 30 31 31 30 28 26 24 22 21 21 21 19 18 18 18 18 18 19 19 18 18 18 18 18 18 18 17 17 16 16 16 17 17 16 15 15 14 14 15
28 27 27 28 29 30 31 31 31 29 29 27 25 22 22 21 19 19 19 20 20 20 20 20 20 20 20 20 20 20 20 19 19 18 18 19 19 19 19 17 16 16 17 17
28 29 27 26 27 29 30 31 31 30 29 28 26 23 23 23 21 20 20 21 21 21 22 21 21 21 22 22 22 22 22 20 20 20 20 20 21 21 20 19 19 19 19 19
29 30 29 26 25 26 29 30 30 30 28 29 28 25 25 25 23 22 22 22 21 22 23 22 22 22 22 23 24 23 23 22 22 21 21 22 22 22 21 21 21 21 22 22
29 29 29 27 26 26 27 28 29 29 28 27 26 26 26 25 25 23 22 22 22 23 23 23 23 24 23 23 23 24 24 24 24 24 23 24 24 23 23 23 23 23 24 24
28 28 28 28 27 26 26 26 27 27 27 28 27 27 26 26 25 24 23 23 23 23 23 23 23 24 24 24 24 24 25 25 25 25 25 25 25 25 25 25 25 25 26 26
28 28 27 26 26 26 28 27 26 26 27 28 27 26 26 26 25 25 25 24 24 24 25 25 24 24 23 24 24 25 25 25 26 27 26 27 27 27 28 27 27 27 27 26
29 28 28 27 27 28 28 27 27 26 26 27 28 28 27 26 25 26 26 25 26 26 26 26 26 26 25 25 26 26 27 28 29 29 29 29 29 29 29 29 28 27 27 27
29 28 27 27 27 29 31 29 27 27 27 28 29 28 27 26 26 26 26 27 28 28 28 27 28 28 28 28 28 28 29 30 32 31 31 31 31 31 31 31 30 29 29 28
29 28 28 28 27 28 31 29 27 28 29 29 28 28 29 28 28 28 27 28 28 29 30 30 30 30 30 30 30 30 30 31 31 32 32 32 32 32 32 32 31 30 30 30
30 30 30 29 29 30 31 29 28 29 29 28 28 28 28 28 30 29 29 29 29 30 31 32 32 31 31 30 31 31 31 32 32 32 33 34 34 34 33 33 32 33 32 32
31 31 31 30 31 31 32 30 30 30 30 29 29 29 28 28 29 29 30 30 30 31 31 32 32 31 31 31 32 32 33 33 33 34 34 35 34 34 33 34 33 34 33 33
31 31 32 32 32 32 31 30 30 30 29 29 29 29 29 29 30 30 30 31 32 33 33 33 33 32 32 33 33 34 34 34 35 35 34 34 34 34 34 34 33 33 34 34
31 31 31 32 31 31 30 29 29 29 30 29 29 29 30 30 31 31 31 33 33 34 34 34 34 34 35 35 35 35 36 36 37 36 36 35 35 35 35 35 34 34 35 35
29 29 30 31 31 30 30 30 29 29 30 31 31 31 31 31 31 31 32 32 33 33 33 34 34 34 34 35 36 37 37 37 38 37 36 36 36 35 36 36 35 35 35 35
26 27 28 29 29 29 30 30 30 30 30 30 30 30 31 31 32 32 32 31 32 33 34 35 35 35 36 36 37 37 37 38 38 38 38 37 35 36 36 36 36 36 36 37

GEFSCGP_500_meanwind_228.txt.gz
Wind_Speed
14 14 13 11 12 13 12 11 10 10 9 7 6 9 10 8 8 9 10 10 9 9 9 9 9 9 9 9 10 10 10 10 11 11 10 10 9 8 8 7 6 5 5 4
17 15 13 13 14 14 14 12 11 12 12 8 8 11 12 10 9 9 10 10 10 9 9 10 10 9 9 9 10 10 10 10 11 11 11 10 9 9 9 8 7 6 5 4
18 15 15 15 15 17 15 13 13 13 12 11 10 11 13 12 10 10 9 10 10 11 10 9 9 8 9 9 10 10 11 10 10 11 11 11 10 10 9 9 8 7 6 6
19 17 19 18 18 16 16 15 16 16 14 15 14 14 14 15 14 11 10 10 11 11 12 11 9 8 9 9 10 10 10 10 10 10 10 11 10 10 10 9 8 8 7 7
20 20 21 21 19 18 18 17 18 18 17 18 18 16 14 16 15 13 11 11 11 12 12 11 11 10 9 9 9 10 10 10 10 10 11 11 11 11 11 10 9 9 9 8
21 21 22 23 21 21 20 19 19 18 18 20 18 18 18 18 16 15 13 11 12 12 13 12 12 11 11 10 10 11 11 11 11 11 11 12 12 11 11 11 10 10 10 10
22 22 22 22 23 22 22 20 20 20 21 21 17 19 20 20 17 17 16 13 12 13 14 13 13 13 13 12 12 12 12 12 12 12 12 12 12 11 11 11 11 11 10 11
23 23 22 23 24 23 23 22 23 21 20 19 19 21 20 20 19 18 18 17 17 16 15 14 13 14 14 14 13 13 13 13 14 13 13 13 13 12 12 12 13 13 12 12
23 24 21 23 23 24 24 24 23 23 23 22 22 22 19 20 19 18 18 19 20 18 17 17 16 16 16 16 15 15 15 15 15 15 14 14 13 13 13 14 14 15 14 14
25 24 23 24 24 25 25 23 23 24 25 25 24 22 19 19 19 20 20 20 22 21 19 19 18 18 17 17 17 17 17 16 16 16 16 15 14 14 14 15 16 16 16 16
26 26 23 24 26 24 24 26 25 25 26 26 25 24 20 23 23 22 22 23 22 21 21 21 20 21 19 19 19 19 19 18 18 18 17 16 16 15 16 17 17 17 17 17
27 27 25 24 25 24 24 26 26 27 28 26 26 24 22 23 22 22 22 24 23 22 22 22 22 22 21 21 21 21 21 20 20 20 19 19 17 17 18 19 19 19 19 18
27 27 26 24 23 24 25 25 26 27 26 26 25 26 24 23 23 24 25 25 24 25 25 25 25 24 22 22 23 22 22 22 21 20 20 20 20 19 20 20 21 21 21 20
28 29 28 26 23 22 24 25 26 27 27 26 26 27 27 25 25 25 25 25 25 25 25 26 26 26 24 24 24 24 23 23 22 21 21 22 21 22 22 22 23 23 22 22
30 30 29 28 25 24 25 25 26 27 28 27 26 27 28 26 27 26 25 26 26 27 27 25 26 27 26 25 25 25 24 24 24 23 23 24 24 24 24 24 24 25 24 24
31 30 29 29 28 27 27 27 28 28 28 28 26 27 29 29 30 28 26 28 28 26 27 26 25 26 26 26 26 26 26 26 26 25 25 25 26 26 26 26 26 26 26 26
31 30 30 30 28 28 28 28 27 28 27 28 29 30 31 30 31 32 29 28 27 27 27 26 26 26 27 27 27 27 28 28 28 28 28 28 28 28 28 28 28 27 27 27
30 31 30 29 28 29 28 26 26 27 28 28 30 31 32 30 30 28 28 28 27 27 27 26 26 28 27 27 28 28 29 30 30 30 30 29 30 30 29 30 29 28 28 28
29 30 30 29 28 28 28 28 28 28 30 31 30 31 31 29 30 31 29 28 29 28 27 27 28 28 29 29 30 30 31 31 31 31 31 31 32 32 32 31 30 30 30 30
30 31 32 30 28 28 29 28 28 28 29 30 31 31 30 30 31 32 30 29 29 30 28 28 29 29 30 31 31 31 32 33 33 33 33 33 33 34 34 32 32 32 32 32
29 30 31 30 30 29 29 27 27 28 30 30 31 32 32 33 34 33 31 31 31 31 30 30 30 30 31 32 33 33 32 33 33 34 34 34 34 34 33 32 32 33 34 34
29 30 31 31 31 32 31 28 29 30 31 31 31 31 33 33 34 34 34 33 33 33 32 32 32 32 33 33 34 34 34 34 34 35 35 35 35 34 34 34 33 34 34 35
29 30 30 32 34 34 34 33 32 32 33 33 33 32 33 33 33 34 34 34 34 32 32 32 33 34 34 35 35 36 36 36 36 36 36 36 36 35 34 35 35 35 35 35
29 29 32 34 35 35 35 35 34 34 34 34 33 33 33 33 34 33 33 33 32 31 32 32 34 35 36 36 36 37 36 37 37 37 37 37 36 35 36 35 35 36 36 35
30 31 33 34 35 36 36 35 34 34 34 35 34 33 33 33 34 34 33 33 33 33 34 34 34 36 36 36 36 36 36 36 36 36 37 37 37 36 36 36 37 36 36 36
31 31 32 34 34 34 34 34 35 35 35 35 34 35 34 34 34 34 34 34 34 34 34 35 35 35 36 36 36 36 36 37 37 37 37 37 36 36 36 36 36 35 36 36

GEFSCGP_500_meanwind_234.txt.gz
Wind_Speed
19 18 16 14 15 14 14 11 8 7 7 8 8 7 6 6 7 7 8 8 8 9 10 10 10 9 9 9 9 9 9 10 10 9 9 9 8 8 7 6 6 5 3 2
21 18 16 16 16 16 16 13 11 9 9 10 9 7 6 6 6 6 7 8 7 8 8 9 9 8 8 8 8 8 8 8 9 9 9 9 8 8 7 7 6 5 4 3
21 18 18 18 18 18 17 15 14 13 13 12 12 11 9 8 7 6 7 7 7 7 7 7 7 7 7 7 8 7 7 8 8 8 8 9 9 8 7 6 6 5 4 3
21 20 20 20 20 19 18 16 16 16 15 15 15 14 12 11 10 7 7 7 8 7 6 6 6 6 7 7 7 7 6 7 7 7 7 7 7 8 7 6 6 6 5 4
21 21 21 21 20 19 18 17 17 18 18 17 16 16 14 14 12 10 9 9 9 10 8 7 6 6 7 7 7 7 6 6 7 7 7 7 6 6 6 6 6 6 6 5
23 22 23 22 21 20 18 18 19 20 20 19 16 17 16 15 13 12 13 12 12 11 9 8 8 7 8 8 7 7 7 7 7 7 7 7 7 6 6 6 5 5 6 6
24 24 24 23 23 21 21 20 21 22 23 20 18 20 18 16 16 15 15 14 13 12 11 9 8 8 8 9 9 8 8 8 8 8 8 9 9 8 7 7 6 6 6 6
25 25 25 25 24 22 22 23 23 23 22 20 21 23 21 19 18 18 17 15 15 14 13 13 10 9 9 9 10 10 10 10 10 10 10 10 10 10 9 8 7 7 7 7
26 25 24 25 24 24 23 24 23 24 23 24 24 22 22 21 19 19 19 18 18 16 15 15 13 12 11 11 11 12 11 11 11 12 11 11 11 10 10 9 9 9 8 8
26 26 25 25 25 25 25 24 24 25 25 26 25 23 22 22 20 21 22 20 19 18 17 16 15 14 14 13 14 14 13 13 13 13 13 13 12 11 11 11 11 11 10 9
26 27 26 26 27 26 26 27 28 28 28 28 28 26 24 24 23 22 22 22 22 20 19 18 16 16 16 16 16 16 15 15 15 15 15 15 14 13 12 13 13 13 12 12
29 29 29 28 27 28 29 29 30 31 31 31 31 30 27 26 25 24 24 23 22 21 20 19 17 18 18 18 19 19 17 18 17 16 16 16 15 15 15 14 14 14 14 14
29 30 30 29 28 29 30 30 31 31 31 31 32 32 28 28 28 27 26 24 23 22 21 20 19 19 20 20 21 21 20 20 19 18 19 18 18 18 17 16 16 16 17 17
31 32 31 30 29 29 29 29 30 31 33 32 32 32 31 30 29 29 28 26 25 24 22 22 22 21 20 21 23 23 23 23 22 21 21 21 20 20 19 19 19 19 19 19
33 33 32 32 31 32 32 31 31 32 33 33 32 32 31 30 30 29 28 27 26 25 23 22 20 21 22 22 23 24 25 24 23 22 22 22 21 21 21 21 22 22 22 22
34 34 34 34 33 33 33 32 32 32 32 32 32 33 32 33 32 30 29 28 27 27 27 24 22 22 22 22 23 25 25 25 25 24 23 24 24 24 24 24 24 24 23 23
35 35 35 35 34 35 36 34 33 32 32 33 33 33 34 35 32 31 30 29 28 28 27 25 23 22 23 24 25 26 27 27 27 26 26 26 25 25 25 26 26 25 25 25
35 36 37 37 36 37 34 34 35 34 33 33 33 33 33 33 33 32 31 29 28 28 26 25 24 23 24 25 25 25 26 26 26 27 26 27 27 27 27 27 27 27 27 27
36 36 36 37 38 38 36 34 34 34 34 34 33 32 33 34 34 32 30 29 29 28 26 25 25 25 25 25 26 26 25 25 27 28 29 28 29 29 29 28 28 28 29 30
35 36 36 36 38 38 34 33 33 34 36 35 34 33 33 34 35 33 31 30 29 28 28 27 26 26 26 26 26 26 27 29 29 29 29 30 31 31 31 31 30 31 31 30
34 35 36 36 37 37 35 34 33 34 35 33 33 33 32 33 33 32 30 29 29 29 28 27 27 27 27 27 27 28 30 30 30 30 30 30 31 31 32 32 32 31 31 31
34 35 36 36 36 36 34 33 34 33 32 33 33 33 32 32 32 33 32 31 30 30 29 28 29 29 29 29 30 30 31 32 31 31 31 32 32 32 33 33 32 32 32 31
33 34 34 35 35 33 33 33 31 31 31 32 32 32 32 32 33 34 33 33 33 32 31 30 31 31 32 32 31 32 33 33 33 32 32 32 33 34 33 33 33 33 33 33
32 32 32 34 34 33 32 32 32 31 30 31 31 31 31 31 31 32 33 34 34 32 32 33 33 33 33 33 34 34 34 35 35 34 34 34 34 35 34 33 33 33 32 32
30 31 32 32 31 31 32 32 31 30 29 30 30 30 30 30 31 31 31 31 32 33 33 34 34 34 33 33 34 35 36 36 35 35 35 34 34 35 35 34 33 32 33 33
30 29 30 29 30 30 30 30 30 29 29 29 29 29 30 31 32 32 32 32 32 32 33 33 33 33 33 33 34 35 35 35 35 35 34 33 34 35 34 34 33 33 33 33

GEFSCGP_500_meanwind_240.txt.gz
Wind_Speed
22 21 19 17 16 17 16 14 12 10 9 7 5 4 3 2 2 3 4 5 6 7 7 7 7 6 6 6 6 6 6 7 7 7 6 6 5 5 4 4 3 2 1 0
24 23 21 20 19 19 18 16 15 13 13 11 10 8 6 5 4 3 3 4 4 5 5 6 6 6 6 5 6 6 6 6 6 6 6 5 5 4 4 4 3 2 2 1
24 23 23 23 22 21 19 18 17 16 15 14 13 10 8 8 7 6 4 5 5 6 6 5 5 5 5 4 4 5 5 5 5 5 5 5 5 4 4 4 4 3 3 2
26 24 25 24 23 23 22 20 20 19 19 17 16 14 11 11 9 8 7 6 7 7 7 7 6 6 6 5 5 5 4 4 5 4 4 4 5 5 5 4 4 4 5 5
27 26 26 25 24 24 23 23 23 22 21 21 19 17 13 13 11 10 9 9 9 9 9 9 9 9 9 7 6 6 6 5 5 5 5 5 5 6 6 6 5 5 6 6
28 28 28 27 26 25 24 25 25 25 24 23 20 20 16 13 12 11 11 11 11 12 13 12 11 11 11 10 9 8 8 6 6 6 6 6 7 7 7 7 6 6 7 7
29 29 29 28 27 27 26 26 26 26 26 24 21 22 18 15 14 13 12 13 13 13 14 14 13 13 12 12 11 10 9 9 8 7 7 8 9 9 8 8 7 7 8 8
29 30 29 29 28 28 27 28 28 27 26 25 24 24 20 19 17 16 15 14 15 15 16 15 15 14 14 14 14 12 11 11 10 10 9 9 10 10 9 9 9 9 10 10
29 29 29 29 28 29 29 28 27 29 28 28 27 25 23 21 20 19 17 17 16 17 17 17 16 16 16 16 17 15 14 13 13 12 12 12 11 11 11 10 10 11 11 11
29 29 29 29 29 29 30 29 29 29 29 29 29 27 25 23 22 21 19 18 18 18 18 18 18 17 17 17 17 17 17 16 16 15 15 14 14 13 13 12 12 12 13 13
29 30 29 30 31 30 30 31 31 31 31 31 31 29 26 24 23 21 20 19 19 19 19 18 18 18 18 17 18 18 19 20 19 18 17 17 16 15 15 14 14 14 15 15
30 31 31 31 31 31 32 32 32 33 33 33 33 31 27 26 25 23 22 21 20 19 19 19 18 19 19 19 19 20 21 22 21 21 20 19 18 17 17 16 16 16 17 17
32 33 32 32 33 33 34 33 33 34 34 34 34 32 28 28 27 26 25 24 23 23 22 21 20 21 20 21 21 21 21 22 23 23 21 20 20 20 19 19 18 18 18 18
34 35 34 33 33 33 34 34 34 34 34 35 34 32 29 29 30 29 28 27 26 24 23 23 22 22 22 22 22 23 23 23 23 22 22 22 21 21 22 22 21 21 21 20
36 36 35 34 33 34 34 34 35 35 35 35 34 33 31 29 30 30 28 28 27 27 25 24 24 23 23 23 23 23 23 24 24 24 23 23 23 24 24 24 24 24 23 24
37 38 37 35 35 35 35 35 35 35 35 36 35 34 31 29 29 29 28 28 28 27 26 24 24 24 24 24 25 25 25 25 25 26 25 24 25 25 25 26 26 26 25 24
37 38 38 37 36 37 36 35 35 35 34 35 35 33 32 31 30 28 27 28 27 27 26 25 26 26 26 26 25 26 26 25 26 27 26 26 26 27 26 26 27 27 26 24
38 38 38 37 37 38 36 35 35 35 34 34 35 34 32 31 30 30 29 29 28 27 27 26 25 26 26 26 26 26 26 27 27 27 28 28 27 27 27 27 27 28 28 27
39 38 38 38 38 38 36 35 35 35 35 34 34 33 33 32 31 30 30 29 29 29 28 26 26 26 26 26 26 27 27 27 29 29 29 28 28 28 28 28 29 29 29 28
39 39 39 39 39 39 36 35 35 35 35 33 34 33 33 32 31 29 29 29 29 29 28 27 28 28 28 28 28 28 28 28 28 29 30 30 30 30 29 30 30 30 30 30
39 38 38 38 39 39 37 36 36 36 34 32 32 32 32 33 31 30 30 30 30 30 29 30 30 30 30 30 29 29 29 30 30 31 30 29 29 29 30 31 31 31 32 32
38 38 38 38 38 38 36 36 36 34 33 33 32 32 32 31 31 31 32 32 31 30 30 31 31 31 31 30 30 30 29 30 30 30 30 30 30 29 30 31 31 32 32 33
36 36 37 38 38 37 36 36 34 34 33 32 32 31 31 31 31 31 31 30 30 30 30 30 31 30 30 31 31 30 30 30 30 30 30 31 31 32 32 32 32 33 34 34
34 34 35 36 37 37 36 36 34 33 33 32 31 30 30 31 30 30 30 30 30 28 29 29 29 30 31 31 30 30 30 31 31 30 31 32 32 32 32 32 33 34 34 35
32 33 34 34 35 35 35 35 34 33 32 31 30 29 30 30 29 29 30 30 29 28 28 28 29 30 30 30 31 31 31 31 31 31 31 32 32 32 32 32 32 33 33 34
30 31 31 31 30 30 31 32 32 32 31 31 30 29 29 29 28 28 29 28 28 27 27 28 29 30 30 30 30 30 30 30 31 31 31 32 31 30 31 31 31 32 32 33

GEFSCGP_500_meanwind_246.txt.gz
Wind_Speed
18 17 15 15 14 13 12 10 9 9 8 6 5 4 4 3 2 2 3 4 4 6 6 6 7 7 8 7 7 6 5 5 5 4 4 4 3 3 2 2 1 0 1 2
20 19 18 18 17 16 14 12 12 11 10 9 7 7 6 6 4 3 4 4 5 5 6 6 6 7 7 7 6 6 5 5 5 4 4 3 3 3 2 2 2 1 2 2
21 20 21 20 19 17 16 15 14 14 13 11 10 9 9 9 8 7 6 6 5 5 6 6 7 7 7 7 6 6 5 5 5 5 4 3 3 3 3 3 3 3 3 3
23 23 22 22 21 19 18 18 17 16 15 13 13 11 12 11 10 9 8 8 7 7 7 7 7 8 8 8 7 7 7 6 6 6 6 5 4 4 4 4 4 4 4 4
24 24 23 22 22 21 21 21 20 18 17 16 16 14 13 12 11 11 10 10 10 9 9 9 8 9 9 9 8 8 9 8 8 7 7 6 6 5 6 6 6 6 6 6
25 25 25 24 24 24 23 23 22 20 19 19 17 16 14 14 12 12 12 12 11 12 11 10 10 10 11 11 10 10 10 10 10 9 9 9 8 9 8 8 8 8 8 8
25 25 25 25 25 25 25 23 21 21 21 20 18 18 15 15 14 13 13 13 13 13 13 13 12 12 12 13 12 12 12 12 12 11 11 11 11 11 10 10 10 10 10 10
25 26 26 25 26 25 25 25 23 22 20 20 21 20 16 16 16 15 15 15 15 15 15 14 14 14 14 14 14 14 14 14 14 13 13 13 13 13 13 13 12 11 11 11
25 26 26 26 27 27 26 26 24 24 23 22 22 21 18 18 18 17 17 17 17 17 17 16 16 16 16 16 16 15 15 16 17 16 15 15 14 14 14 14 14 13 13 14
26 26 27 27 27 28 28 27 26 25 24 24 23 23 20 20 19 20 19 19 19 18 18 17 17 17 18 18 17 17 17 17 18 18 18 17 17 17 16 16 16 15 15 15
28 28 27 28 28 28 29 29 28 26 26 25 24 23 23 23 21 20 20 19 19 18 19 19 18 18 19 19 19 19 19 19 20 20 20 19 19 18 18 18 18 17 17 17
30 29 29 29 28 28 29 29 28 28 27 27 25 24 25 24 22 21 21 20 20 20 20 20 20 20 20 21 21 21 21 21 21 21 21 21 21 21 21 20 20 18 18 18
32 32 30 30 30 30 31 30 30 29 29 29 27 25 25 24 24 23 22 22 22 21 21 21 21 21 21 22 22 22 22 22 22 23 23 23 23 23 22 22 21 20 19 19
34 34 32 31 29 31 31 31 31 30 30 30 29 26 27 26 25 24 24 24 23 22 22 22 23 23 23 23 23 23 24 24 24 24 23 23 23 23 23 23 22 21 21 21
35 35 34 33 33 33 32 32 32 32 31 31 30 29 28 27 27 26 25 24 24 24 24 25 25 25 25 25 25 25 26 26 25 24 24 24 24 24 24 24 23 23 23 22
36 36 35 34 34 33 33 33 33 33 32 31 31 30 28 27 27 26 26 26 26 26 25 25 26 26 26 26 25 25 25 25 25 25 25 25 25 25 25 25 24 25 24 24
36 36 35 34 34 34 35 34 33 33 32 31 31 30 29 28 28 27 26 27 27 27 27 27 27 27 27 27 27 26 27 27 26 26 27 26 27 27 27 26 26 26 26 25
35 36 36 34 34 35 34 34 34 33 33 33 33 32 31 31 29 28 27 28 28 28 27 27 28 28 28 28 28 28 28 28 28 28 29 29 28 28 28 28 28 28 28 28
36 36 36 35 35 35 34 34 33 33 33 33 33 33 32 31 30 30 29 29 29 29 28 29 29 29 28 28 29 29 29 29 29 29 30 30 31 30 30 30 30 30 30 30
36 36 36 36 36 35 34 35 33 33 34 33 33 32 31 31 30 29 29 29 29 29 29 29 30 30 29 29 29 30 30 30 31 31 32 31 32 32 32 32 32 31 30 31
36 36 36 36 36 36 36 35 34 34 33 33 32 32 32 31 30 30 29 29 29 30 30 30 30 31 30 30 31 31 31 31 32 32 32 32 33 33 33 32 32 32 32 32
36 36 37 37 37 37 38 36 35 34 33 32 32 32 32 31 31 30 30 30 30 30 30 31 31 32 32 32 32 32 32 32 32 32 32 32 33 34 34 33 32 32 33 33
35 35 36 37 37 37 38 37 36 35 34 33 32 32 32 31 31 31 31 31 31 31 32 31 31 32 32 32 32 32 32 33 32 32 32 33 33 34 33 33 33 33 33 32
33 34 35 36 37 37 37 36 35 35 33 32 32 32 31 31 31 32 31 32 32 32 32 31 31 31 32 32 32 31 31 31 31 32 32 32 32 33 32 32 32 32 32 32
31 32 34 36 36 35 35 35 34 34 33 32 32 32 32 31 31 31 31 31 31 32 32 32 31 31 31 31 31 31 31 31 30 30 30 30 31 31 32 32 32 32 31 31
30 31 32 32 32 33 33 33 33 33 33 32 32 33 32 32 31 31 31 31 31 31 31 31 31 31 31 31 31 31 31 29 29 30 29 28 29 30 30 31 31 31 30 30